Observation data for Welch on 09/11/2017      Previous  Date  Next       Current Mesonet Observations  Soil Data  Daily Summary Page  Observations in Plain Language
KWE2 110500Z 10006KT 17/10 A3024 RMK A01 T01730096  RH  060%=      5-min Rain = 0
KWE2 110501Z 10006KT 17/10 A3024 RMK A01 T01730097  RH  061%=      5-min Rain = 0
KWE2 110502Z 10006KT 17/10 A3024 RMK A01 T01730097  RH  061%=      5-min Rain = 0
KWE2 110503Z 10006KT 17/10 A3024 RMK A01 T01730097  RH  061%=      5-min Rain = 0
KWE2 110504Z 10006KT 17/10 A3024 RMK A01 T01720097  RH  061%=      5-min Rain = 0
KWE2 110505Z 10006KT 17/10 A3024 RMK A01 T01720098  RH  062%=      5-min Rain = 0
KWE2 110506Z 10005KT 17/10 A3024 RMK A01 T01710098  RH  062%=      5-min Rain = 0
KWE2 110507Z 10005KT 17/10 A3024 RMK A01 T01700098  RH  063%=      5-min Rain = 0
KWE2 110508Z 10005KT 17/10 A3024 RMK A01 T01700098  RH  063%=      5-min Rain = 0
KWE2 110509Z 10006KT 17/10 A3024 RMK A01 T01690098  RH  063%=      5-min Rain = 0
KWE2 110510Z 10005KT 17/10 A3024 RMK A01 T01690099  RH  063%=      5-min Rain = 0
KWE2 110511Z 10005KT 17/10 A3024 RMK A01 T01680099  RH  063%=      5-min Rain = 0
KWE2 110512Z 10005KT 17/10 A3024 RMK A01 T01680099  RH  064%=      5-min Rain = 0
KWE2 110513Z 10006KT 17/10 A3024 RMK A01 T01670099  RH  064%=      5-min Rain = 0
KWE2 110514Z 10005KT 17/10 A3024 RMK A01 T01670097  RH  063%=      5-min Rain = 0
KWE2 110515Z 10005KT 17/10 A3024 RMK A01 T01670098  RH  064%=      5-min Rain = 0
KWE2 110516Z 11006KT 17/10 A3024 RMK A01 T01670098  RH  064%=      5-min Rain = 0
KWE2 110517Z 11006KT 17/10 A3024 RMK A01 T01660098  RH  064%=      5-min Rain = 0
KWE2 110518Z 10005KT 17/10 A3024 RMK A01 T01650098  RH  064%=      5-min Rain = 0
KWE2 110519Z 10005KT 17/10 A3024 RMK A01 T01650098  RH  065%=      5-min Rain = 0
KWE2 110520Z 10005KT 16/10 A3024 RMK A01 T01640098  RH  065%=      5-min Rain = 0
KWE2 110521Z 10005KT 16/10 A3024 RMK A01 T01640098  RH  065%=      5-min Rain = 0
KWE2 110522Z 10005KT 16/10 A3024 RMK A01 T01630097  RH  065%=      5-min Rain = 0
KWE2 110523Z 10005KT 16/10 A3024 RMK A01 T01630098  RH  065%=      5-min Rain = 0
KWE2 110524Z 10005KT 16/10 A3024 RMK A01 T01630098  RH  065%=      5-min Rain = 0
KWE2 110525Z 11005KT 16/10 A3024 RMK A01 T01620097  RH  065%=      5-min Rain = 0
KWE2 110526Z 11005KT 16/10 A3024 RMK A01 T01620097  RH  065%=      5-min Rain = 0
KWE2 110527Z 11005KT 16/10 A3024 RMK A01 T01620097  RH  065%=      5-min Rain = 0
KWE2 110528Z 11005KT 16/10 A3024 RMK A01 T01620097  RH  066%=      5-min Rain = 0
KWE2 110529Z 11005KT 16/10 A3024 RMK A01 T01610097  RH  066%=      5-min Rain = 0
KWE2 110530Z 11005KT 16/10 A3024 RMK A01 T01610097  RH  066%=      5-min Rain = 0
KWE2 110531Z 11005KT 16/10 A3024 RMK A01 T01600096  RH  066%=      5-min Rain = 0
KWE2 110532Z 11005KT 16/10 A3024 RMK A01 T01610096  RH  066%=      5-min Rain = 0
KWE2 110533Z 11005KT 16/10 A3024 RMK A01 T01600096  RH  066%=      5-min Rain = 0
KWE2 110534Z 11005KT 16/10 A3024 RMK A01 T01610097  RH  066%=      5-min Rain = 0
KWE2 110535Z 11005KT 16/10 A3024 RMK A01 T01600097  RH  066%=      5-min Rain = 0
KWE2 110536Z 10005KT 16/10 A3024 RMK A01 T01600097  RH  066%=      5-min Rain = 0
KWE2 110537Z 11005KT 16/10 A3024 RMK A01 T01590097  RH  067%=      5-min Rain = 0
KWE2 110538Z 11004KT 16/10 A3024 RMK A01 T01590097  RH  067%=      5-min Rain = 0
KWE2 110539Z 11004KT 16/10 A3024 RMK A01 T01590097  RH  066%=      5-min Rain = 0
KWE2 110540Z 11004KT 16/10 A3024 RMK A01 T01590097  RH  067%=      5-min Rain = 0
KWE2 110541Z 11004KT 16/10 A3024 RMK A01 T01590098  RH  067%=      5-min Rain = 0
KWE2 110542Z 11005KT 16/10 A3024 RMK A01 T01590098  RH  067%=      5-min Rain = 0
KWE2 110543Z 11005KT 16/10 A3024 RMK A01 T01590096  RH  066%=      5-min Rain = 0
KWE2 110544Z 11004KT 16/10 A3024 RMK A01 T01600097  RH  066%=      5-min Rain = 0
KWE2 110545Z 11005KT 16/10 A3024 RMK A01 T01600097  RH  066%=      5-min Rain = 0
KWE2 110546Z 11005KT 16/10 A3024 RMK A01 T01600097  RH  066%=      5-min Rain = 0
KWE2 110547Z 10005KT 16/10 A3024 RMK A01 T01600096  RH  066%=      5-min Rain = 0
KWE2 110548Z 10005KT 16/10 A3024 RMK A01 T01600096  RH  066%=      5-min Rain = 0
KWE2 110549Z 11005KT 16/10 A3024 RMK A01 T01600096  RH  066%=      5-min Rain = 0
KWE2 110550Z 11005KT 16/10 A3024 RMK A01 T01610096  RH  066%=      5-min Rain = 0
KWE2 110551Z 11005KT 16/10 A3024 RMK A01 T01600096  RH  065%=      5-min Rain = 0
KWE2 110552Z 11005KT 16/10 A3024 RMK A01 T01600096  RH  066%=      5-min Rain = 0
KWE2 110553Z 11005KT 16/10 A3024 RMK A01 T01610096  RH  065%=      5-min Rain = 0
KWE2 110554Z 11005KT 16/10 A3024 RMK A01 T01610096  RH  065%=      5-min Rain = 0
KWE2 110555Z 11005KT 16/10 A3024 RMK A01 T01610096  RH  065%=      5-min Rain = 0
KWE2 110556Z 11005KT 16/10 A3024 RMK A01 T01610095  RH  065%=      5-min Rain = 0
KWE2 110557Z 10005KT 16/10 A3024 RMK A01 T01610096  RH  065%=      5-min Rain = 0
KWE2 110558Z 10005KT 16/10 A3024 RMK A01 T01600096  RH  066%=      5-min Rain = 0
KWE2 110559Z 10005KT 16/10 A3024 RMK A01 T01590095  RH  066%=      5-min Rain = 0
KWE2 110600Z 10005KT 16/10 A3024 RMK A01 T01590095  RH  066%=      5-min Rain = 0
KWE2 110601Z 11005KT 16/10 A3024 RMK A01 T01590095  RH  066%=      5-min Rain = 0
KWE2 110602Z 10005KT 16/10 A3024 RMK A01 T01590095  RH  065%=      5-min Rain = 0
KWE2 110603Z 10005KT 16/09 A3024 RMK A01 T01600094  RH  065%=      5-min Rain = 0
KWE2 110604Z 11005KT 16/09 A3024 RMK A01 T01610094  RH  064%=      5-min Rain = 0
KWE2 110605Z 11005KT 16/09 A3024 RMK A01 T01620094  RH  064%=      5-min Rain = 0
KWE2 110606Z 10005KT 16/09 A3024 RMK A01 T01610094  RH  064%=      5-min Rain = 0
KWE2 110607Z 10005KT 16/09 A3024 RMK A01 T01610094  RH  065%=      5-min Rain = 0
KWE2 110608Z 11005KT 16/09 A3024 RMK A01 T01600094  RH  065%=      5-min Rain = 0
KWE2 110609Z 11005KT 16/10 A3024 RMK A01 T01600095  RH  065%=      5-min Rain = 0
KWE2 110610Z 11005KT 16/10 A3024 RMK A01 T01600096  RH  066%=      5-min Rain = 0
KWE2 110611Z 11006KT 16/10 A3024 RMK A01 T01600096  RH  066%=      5-min Rain = 0
KWE2 110612Z 11005KT 16/10 A3024 RMK A01 T01600097  RH  066%=      5-min Rain = 0
KWE2 110613Z 11005KT 16/10 A3024 RMK A01 T01590096  RH  066%=      5-min Rain = 0
KWE2 110614Z 10005KT 16/10 A3024 RMK A01 T01590096  RH  066%=      5-min Rain = 0
KWE2 110615Z 10005KT 16/10 A3024 RMK A01 T01590096  RH  067%=      5-min Rain = 0
KWE2 110616Z 10005KT 16/10 A3024 RMK A01 T01580096  RH  067%=      5-min Rain = 0
KWE2 110617Z 10005KT 16/10 A3024 RMK A01 T01570096  RH  067%=      5-min Rain = 0
KWE2 110618Z 11005KT 16/10 A3024 RMK A01 T01570096  RH  067%=      5-min Rain = 0
KWE2 110619Z 10005KT 16/10 A3024 RMK A01 T01560096  RH  067%=      5-min Rain = 0
KWE2 110620Z 11005KT 16/10 A3024 RMK A01 T01560096  RH  068%=      5-min Rain = 0
KWE2 110621Z 11005KT 16/10 A3024 RMK A01 T01550096  RH  068%=      5-min Rain = 0
KWE2 110622Z 11005KT 16/10 A3023 RMK A01 T01550096  RH  068%=      5-min Rain = 0
KWE2 110623Z 11005KT 15/10 A3023 RMK A01 T01540096  RH  068%=      5-min Rain = 0
KWE2 110624Z 11005KT 16/10 A3023 RMK A01 T01550096  RH  068%=      5-min Rain = 0
KWE2 110625Z 11005KT 15/10 A3023 RMK A01 T01540096  RH  068%=      5-min Rain = 0
KWE2 110626Z 10005KT 15/10 A3023 RMK A01 T01540096  RH  068%=      5-min Rain = 0
KWE2 110627Z 11005KT 15/10 A3023 RMK A01 T01530096  RH  068%=      5-min Rain = 0
KWE2 110628Z 11005KT 15/10 A3023 RMK A01 T01530096  RH  069%=      5-min Rain = 0
KWE2 110629Z 11005KT 15/10 A3023 RMK A01 T01530096  RH  069%=      5-min Rain = 0
KWE2 110630Z 11004KT 15/10 A3023 RMK A01 T01530095  RH  068%=      5-min Rain = 0
KWE2 110631Z 11005KT 16/10 A3023 RMK A01 T01560095  RH  067%=      5-min Rain = 0
KWE2 110632Z 11005KT 16/10 A3023 RMK A01 T01570096  RH  067%=      5-min Rain = 0
KWE2 110633Z 11005KT 16/10 A3023 RMK A01 T01560096  RH  068%=      5-min Rain = 0
KWE2 110634Z 11005KT 16/10 A3023 RMK A01 T01550096  RH  068%=      5-min Rain = 0
KWE2 110635Z 11005KT 15/10 A3023 RMK A01 T01540096  RH  068%=      5-min Rain = 0
KWE2 110636Z 11005KT 15/10 A3023 RMK A01 T01540096  RH  068%=      5-min Rain = 0
KWE2 110637Z 11005KT 15/10 A3023 RMK A01 T01540096  RH  068%=      5-min Rain = 0
KWE2 110638Z 11005KT 15/10 A3023 RMK A01 T01540096  RH  068%=      5-min Rain = 0
KWE2 110639Z 10005KT 15/10 A3023 RMK A01 T01530095  RH  068%=      5-min Rain = 0
KWE2 110640Z 10005KT 15/10 A3023 RMK A01 T01530095  RH  068%=      5-min Rain = 0
KWE2 110641Z 10005KT 15/09 A3023 RMK A01 T01520094  RH  068%=      5-min Rain = 0
KWE2 110642Z 10005KT 15/10 A3023 RMK A01 T01510095  RH  069%=      5-min Rain = 0
KWE2 110643Z 10005KT 15/09 A3023 RMK A01 T01500094  RH  069%=      5-min Rain = 0
KWE2 110644Z 10005KT 15/09 A3023 RMK A01 T01490094  RH  070%=      5-min Rain = 0
KWE2 110645Z 10006KT 15/09 A3023 RMK A01 T01490094  RH  069%=      5-min Rain = 0
KWE2 110646Z 10006KT 15/09 A3023 RMK A01 T01510094  RH  069%=      5-min Rain = 0
KWE2 110647Z 10005KT 15/09 A3023 RMK A01 T01510094  RH  069%=      5-min Rain = 0
KWE2 110648Z 10005KT 15/09 A3023 RMK A01 T01510094  RH  068%=      5-min Rain = 0
KWE2 110649Z 10005KT 15/09 A3023 RMK A01 T01510094  RH  068%=      5-min Rain = 0
KWE2 110650Z 10005KT 15/09 A3023 RMK A01 T01510094  RH  069%=      5-min Rain = 0
KWE2 110651Z 10005KT 15/10 A3023 RMK A01 T01510095  RH  069%=      5-min Rain = 0
KWE2 110652Z 10005KT 15/10 A3023 RMK A01 T01510095  RH  069%=      5-min Rain = 0
KWE2 110653Z 10005KT 15/10 A3023 RMK A01 T01510095  RH  069%=      5-min Rain = 0
KWE2 110654Z 10005KT 15/10 A3023 RMK A01 T01500095  RH  070%=      5-min Rain = 0
KWE2 110655Z 10005KT 15/10 A3023 RMK A01 T01500095  RH  070%=      5-min Rain = 0
KWE2 110656Z 10004KT 15/10 A3023 RMK A01 T01490096  RH  070%=      5-min Rain = 0
KWE2 110657Z 11005KT 15/10 A3023 RMK A01 T01490096  RH  070%=      5-min Rain = 0
KWE2 110658Z 10005KT 15/10 A3023 RMK A01 T01490096  RH  071%=      5-min Rain = 0
KWE2 110659Z 10005KT 15/10 A3023 RMK A01 T01490096  RH  071%=      5-min Rain = 0
KWE2 110700Z 10005KT 15/10 A3023 RMK A01 T01490096  RH  071%=      5-min Rain = 0
KWE2 110701Z 10005KT 15/10 A3023 RMK A01 T01480096  RH  071%=      5-min Rain = 0
KWE2 110702Z 10005KT 15/10 A3023 RMK A01 T01480096  RH  071%=      5-min Rain = 0
KWE2 110703Z 10005KT 15/10 A3023 RMK A01 T01480095  RH  071%=      5-min Rain = 0
KWE2 110704Z 10005KT 15/10 A3023 RMK A01 T01480095  RH  071%=      5-min Rain = 0
KWE2 110705Z 11005KT 15/10 A3023 RMK A01 T01470095  RH  071%=      5-min Rain = 0
KWE2 110706Z 11005KT 15/10 A3023 RMK A01 T01470095  RH  071%=      5-min Rain = 0
KWE2 110707Z 11005KT 15/10 A3023 RMK A01 T01470095  RH  071%=      5-min Rain = 0
KWE2 110708Z 11005KT 15/10 A3023 RMK A01 T01470095  RH  071%=      5-min Rain = 0
KWE2 110709Z 11005KT 15/10 A3023 RMK A01 T01470095  RH  071%=      5-min Rain = 0
KWE2 110710Z 11005KT 15/10 A3023 RMK A01 T01480095  RH  070%=      5-min Rain = 0
KWE2 110711Z 10005KT 15/10 A3023 RMK A01 T01480095  RH  070%=      5-min Rain = 0
KWE2 110712Z 11005KT 15/10 A3023 RMK A01 T01490095  RH  070%=      5-min Rain = 0
KWE2 110713Z 11005KT 15/10 A3023 RMK A01 T01490095  RH  070%=      5-min Rain = 0
KWE2 110714Z 11005KT 15/10 A3023 RMK A01 T01500095  RH  070%=      5-min Rain = 0
KWE2 110715Z 11005KT 15/09 A3023 RMK A01 T01490094  RH  069%=      5-min Rain = 0
KWE2 110716Z 10005KT 15/09 A3023 RMK A01 T01500094  RH  069%=      5-min Rain = 0
KWE2 110717Z 10004KT 15/09 A3023 RMK A01 T01500094  RH  069%=      5-min Rain = 0
KWE2 110718Z 10005KT 15/09 A3023 RMK A01 T01510094  RH  069%=      5-min Rain = 0
KWE2 110719Z 10005KT 15/09 A3023 RMK A01 T01520094  RH  068%=      5-min Rain = 0
KWE2 110720Z 10005KT 15/09 A3023 RMK A01 T01510094  RH  069%=      5-min Rain = 0
KWE2 110721Z 10005KT 15/10 A3023 RMK A01 T01500095  RH  070%=      5-min Rain = 0
KWE2 110722Z 11005KT 15/10 A3023 RMK A01 T01480095  RH  070%=      5-min Rain = 0
KWE2 110723Z 11005KT 15/10 A3023 RMK A01 T01470095  RH  071%=      5-min Rain = 0
KWE2 110724Z 11005KT 15/10 A3023 RMK A01 T01470095  RH  071%=      5-min Rain = 0
KWE2 110725Z 11005KT 15/10 A3023 RMK A01 T01470095  RH  071%=      5-min Rain = 0
KWE2 110726Z 11005KT 15/10 A3023 RMK A01 T01470095  RH  071%=      5-min Rain = 0
KWE2 110727Z 11005KT 15/10 A3023 RMK A01 T01470095  RH  071%=      5-min Rain = 0
KWE2 110728Z 10005KT 15/10 A3023 RMK A01 T01470095  RH  071%=      5-min Rain = 0
KWE2 110729Z 10005KT 15/10 A3023 RMK A01 T01460095  RH  071%=      5-min Rain = 0
KWE2 110730Z 10005KT 15/09 A3023 RMK A01 T01450094  RH  072%=      5-min Rain = 0
KWE2 110731Z 11005KT 14/09 A3023 RMK A01 T01440094  RH  072%=      5-min Rain = 0
KWE2 110732Z 11005KT 14/09 A3023 RMK A01 T01440094  RH  072%=      5-min Rain = 0
KWE2 110733Z 11005KT 14/10 A3023 RMK A01 T01440095  RH  072%=      5-min Rain = 0
KWE2 110734Z 11005KT 14/10 A3023 RMK A01 T01440095  RH  073%=      5-min Rain = 0
KWE2 110735Z 10005KT 14/10 A3023 RMK A01 T01430095  RH  072%=      5-min Rain = 0
KWE2 110736Z 11005KT 14/09 A3023 RMK A01 T01430094  RH  072%=      5-min Rain = 0
KWE2 110737Z 10005KT 14/09 A3023 RMK A01 T01430094  RH  072%=      5-min Rain = 0
KWE2 110738Z 10005KT 14/09 A3023 RMK A01 T01430094  RH  072%=      5-min Rain = 0
KWE2 110739Z 10005KT 14/09 A3023 RMK A01 T01430094  RH  072%=      5-min Rain = 0
KWE2 110740Z 10005KT 14/09 A3023 RMK A01 T01430094  RH  072%=      5-min Rain = 0
KWE2 110741Z 11005KT 14/09 A3023 RMK A01 T01430094  RH  072%=      5-min Rain = 0
KWE2 110742Z 10006KT 15/10 A3023 RMK A01 T01450095  RH  072%=      5-min Rain = 0
KWE2 110743Z 10006KT 15/10 A3023 RMK A01 T01450095  RH  072%=      5-min Rain = 0
KWE2 110744Z 10006KT 15/10 A3023 RMK A01 T01450095  RH  072%=      5-min Rain = 0
KWE2 110745Z 10006KT 15/10 A3023 RMK A01 T01450095  RH  072%=      5-min Rain = 0
KWE2 110746Z 10005KT 14/09 A3023 RMK A01 T01440094  RH  072%=      5-min Rain = 0
KWE2 110747Z 11005KT 14/09 A3023 RMK A01 T01430094  RH  072%=      5-min Rain = 0
KWE2 110748Z 11005KT 14/09 A3023 RMK A01 T01430094  RH  072%=      5-min Rain = 0
KWE2 110749Z 11005KT 14/09 A3023 RMK A01 T01430094  RH  072%=      5-min Rain = 0
KWE2 110750Z 11005KT 14/09 A3023 RMK A01 T01430094  RH  072%=      5-min Rain = 0
KWE2 110751Z 11005KT 14/09 A3023 RMK A01 T01430094  RH  073%=      5-min Rain = 0
KWE2 110752Z 11005KT 14/09 A3023 RMK A01 T01420094  RH  073%=      5-min Rain = 0
KWE2 110753Z 11005KT 14/09 A3023 RMK A01 T01420094  RH  073%=      5-min Rain = 0
KWE2 110754Z 11005KT 14/09 A3023 RMK A01 T01420094  RH  073%=      5-min Rain = 0
KWE2 110755Z 11005KT 14/09 A3023 RMK A01 T01420094  RH  073%=      5-min Rain = 0
KWE2 110756Z 11004KT 14/09 A3023 RMK A01 T01420094  RH  073%=      5-min Rain = 0
KWE2 110757Z 11004KT 14/09 A3022 RMK A01 T01420092  RH  072%=      5-min Rain = 0
KWE2 110758Z 10004KT 14/09 A3022 RMK A01 T01420092  RH  072%=      5-min Rain = 0
KWE2 110759Z 10004KT 14/09 A3022 RMK A01 T01420092  RH  072%=      5-min Rain = 0
KWE2 110800Z 10004KT 14/09 A3022 RMK A01 T01420092  RH  072%=      5-min Rain = 0
KWE2 110801Z 10004KT 14/09 A3022 RMK A01 T01420091  RH  072%=      5-min Rain = 0
KWE2 110802Z 10004KT 14/09 A3022 RMK A01 T01420091  RH  072%=      5-min Rain = 0
KWE2 110803Z 11004KT 14/09 A3022 RMK A01 T01420092  RH  072%=      5-min Rain = 0
KWE2 110804Z 11004KT 14/09 A3022 RMK A01 T01420092  RH  072%=      5-min Rain = 0
KWE2 110805Z 11003KT 14/09 A3022 RMK A01 T01430093  RH  072%=      5-min Rain = 0
KWE2 110806Z 10003KT 14/09 A3022 RMK A01 T01430093  RH  072%=      5-min Rain = 0
KWE2 110807Z 10003KT 14/09 A3022 RMK A01 T01430094  RH  072%=      5-min Rain = 0
KWE2 110808Z 10003KT 14/09 A3022 RMK A01 T01430094  RH  072%=      5-min Rain = 0
KWE2 110809Z 10003KT 14/09 A3022 RMK A01 T01430094  RH  072%=      5-min Rain = 0
KWE2 110810Z 10003KT 14/10 A3022 RMK A01 T01430095  RH  073%=      5-min Rain = 0
KWE2 110811Z 10003KT 14/10 A3022 RMK A01 T01430095  RH  073%=      5-min Rain = 0
KWE2 110812Z 10003KT 14/10 A3022 RMK A01 T01420095  RH  073%=      5-min Rain = 0
KWE2 110813Z 11003KT 14/10 A3022 RMK A01 T01420095  RH  073%=      5-min Rain = 0
KWE2 110814Z 11003KT 14/10 A3023 RMK A01 T01420095  RH  073%=      5-min Rain = 0
KWE2 110815Z 11003KT 14/10 A3023 RMK A01 T01410095  RH  074%=      5-min Rain = 0
KWE2 110816Z 11003KT 14/10 A3023 RMK A01 T01410095  RH  074%=      5-min Rain = 0
KWE2 110817Z 11003KT 14/10 A3023 RMK A01 T01400095  RH  074%=      5-min Rain = 0
KWE2 110818Z 11003KT 14/10 A3023 RMK A01 T01400095  RH  074%=      5-min Rain = 0
KWE2 110819Z 11003KT 14/10 A3023 RMK A01 T01390096  RH  075%=      5-min Rain = 0
KWE2 110820Z 10003KT 14/10 A3023 RMK A01 T01390095  RH  075%=      5-min Rain = 0
KWE2 110821Z 10003KT 14/10 A3023 RMK A01 T01390095  RH  074%=      5-min Rain = 0
KWE2 110822Z 10003KT 14/09 A3023 RMK A01 T01390094  RH  074%=      5-min Rain = 0
KWE2 110823Z 10003KT 14/09 A3023 RMK A01 T01390094  RH  074%=      5-min Rain = 0
KWE2 110824Z 09002KT 14/10 A3023 RMK A01 T01390095  RH  074%=      5-min Rain = 0
KWE2 110825Z 09003KT 14/10 A3023 RMK A01 T01390095  RH  074%=      5-min Rain = 0
KWE2 110826Z 09003KT 14/09 A3023 RMK A01 T01390094  RH  074%=      5-min Rain = 0
KWE2 110827Z 09003KT 14/09 A3023 RMK A01 T01390094  RH  074%=      5-min Rain = 0
KWE2 110828Z 09003KT 14/09 A3023 RMK A01 T01390094  RH  074%=      5-min Rain = 0
KWE2 110829Z 08002KT 14/09 A3023 RMK A01 T01400094  RH  074%=      5-min Rain = 0
KWE2 110830Z 09002KT 14/09 A3023 RMK A01 T01430094  RH  072%=      5-min Rain = 0
KWE2 110831Z 09002KT 14/09 A3023 RMK A01 T01430091  RH  071%=      5-min Rain = 0
KWE2 110832Z 09002KT 14/09 A3023 RMK A01 T01410091  RH  072%=      5-min Rain = 0
KWE2 110833Z 09001KT 14/09 A3023 RMK A01 T01400090  RH  072%=      5-min Rain = 0
KWE2 110834Z 00000KT 14/09 A3023 RMK A01 T01380088  RH  071%=      5-min Rain = 0
KWE2 110835Z 00000KT 14/09 A3023 RMK A01 T01360086  RH  072%=      5-min Rain = 0
KWE2 110836Z 00000KT 13/09 A3023 RMK A01 T01340085  RH  072%=      5-min Rain = 0
KWE2 110837Z 00000KT 13/09 A3023 RMK A01 T01320085  RH  073%=      5-min Rain = 0
KWE2 110838Z 04000KT 13/09 A3023 RMK A01 T01310085  RH  074%=      5-min Rain = 0
KWE2 110839Z 06000KT 13/09 A3023 RMK A01 T01300086  RH  074%=      5-min Rain = 0
KWE2 110840Z 00000KT 13/09 A3023 RMK A01 T01290085  RH  075%=      5-min Rain = 0
KWE2 110841Z 00000KT 13/09 A3023 RMK A01 T01290085  RH  075%=      5-min Rain = 0
KWE2 110842Z 00000KT 13/09 A3023 RMK A01 T01280086  RH  075%=      5-min Rain = 0
KWE2 110843Z 11000KT 13/09 A3023 RMK A01 T01280086  RH  076%=      5-min Rain = 0
KWE2 110844Z 11000KT 13/09 A3023 RMK A01 T01270086  RH  076%=      5-min Rain = 0
KWE2 110845Z 11001KT 13/09 A3023 RMK A01 T01270086  RH  076%=      5-min Rain = 0
KWE2 110846Z 10001KT 13/09 A3023 RMK A01 T01260086  RH  076%=      5-min Rain = 0
KWE2 110847Z 11001KT 13/09 A3023 RMK A01 T01260085  RH  076%=      5-min Rain = 0
KWE2 110848Z 11000KT 13/09 A3023 RMK A01 T01260086  RH  077%=      5-min Rain = 0
KWE2 110849Z 00000KT 13/09 A3023 RMK A01 T01260086  RH  077%=      5-min Rain = 0
KWE2 110850Z 11000KT 13/09 A3023 RMK A01 T01260086  RH  077%=      5-min Rain = 0
KWE2 110851Z 11000KT 13/09 A3023 RMK A01 T01250087  RH  077%=      5-min Rain = 0
KWE2 110852Z 11000KT 13/09 A3023 RMK A01 T01250086  RH  077%=      5-min Rain = 0
KWE2 110853Z 11000KT 13/09 A3023 RMK A01 T01250086  RH  077%=      5-min Rain = 0
KWE2 110854Z 12001KT 13/09 A3023 RMK A01 T01260087  RH  077%=      5-min Rain = 0
KWE2 110855Z 12001KT 13/09 A3023 RMK A01 T01270087  RH  076%=      5-min Rain = 0
KWE2 110856Z 12001KT 13/09 A3023 RMK A01 T01280087  RH  076%=      5-min Rain = 0
KWE2 110857Z 12001KT 13/09 A3023 RMK A01 T01290086  RH  075%=      5-min Rain = 0
KWE2 110858Z 13000KT 13/09 A3023 RMK A01 T01290086  RH  075%=      5-min Rain = 0
KWE2 110859Z 13000KT 13/09 A3023 RMK A01 T01290086  RH  075%=      5-min Rain = 0
KWE2 110900Z 12001KT 13/09 A3023 RMK A01 T01290086  RH  075%=      5-min Rain = 0
KWE2 110901Z 11001KT 13/09 A3023 RMK A01 T01280085  RH  075%=      5-min Rain = 0
KWE2 110902Z 10001KT 13/09 A3023 RMK A01 T01290085  RH  075%=      5-min Rain = 0
KWE2 110903Z 10001KT 13/09 A3023 RMK A01 T01290085  RH  075%=      5-min Rain = 0
KWE2 110904Z 10001KT 13/08 A3023 RMK A01 T01290084  RH  074%=      5-min Rain = 0
KWE2 110905Z 10001KT 13/08 A3023 RMK A01 T01280084  RH  074%=      5-min Rain = 0
KWE2 110906Z 10001KT 13/08 A3023 RMK A01 T01280084  RH  074%=      5-min Rain = 0
KWE2 110907Z 09001KT 13/08 A3023 RMK A01 T01280084  RH  074%=      5-min Rain = 0
KWE2 110908Z 09001KT 13/08 A3023 RMK A01 T01280083  RH  074%=      5-min Rain = 0
KWE2 110909Z 09001KT 13/08 A3023 RMK A01 T01280083  RH  074%=      5-min Rain = 0
KWE2 110910Z 10002KT 13/08 A3023 RMK A01 T01280082  RH  074%=      5-min Rain = 0
KWE2 110911Z 09002KT 13/08 A3023 RMK A01 T01270082  RH  074%=      5-min Rain = 0
KWE2 110912Z 10002KT 13/08 A3023 RMK A01 T01270081  RH  074%=      5-min Rain = 0
KWE2 110913Z 10002KT 13/08 A3023 RMK A01 T01260081  RH  074%=      5-min Rain = 0
KWE2 110914Z 10002KT 13/08 A3023 RMK A01 T01260081  RH  074%=      5-min Rain = 0
KWE2 110915Z 10002KT 13/08 A3023 RMK A01 T01260081  RH  074%=      5-min Rain = 0
KWE2 110916Z 10002KT 13/08 A3023 RMK A01 T01260080  RH  074%=      5-min Rain = 0
KWE2 110917Z 10002KT 13/08 A3023 RMK A01 T01260080  RH  073%=      5-min Rain = 0
KWE2 110918Z 10003KT 13/08 A3023 RMK A01 T01260080  RH  074%=      5-min Rain = 0
KWE2 110919Z 10002KT 13/08 A3023 RMK A01 T01260081  RH  074%=      5-min Rain = 0
KWE2 110920Z 10003KT 13/08 A3023 RMK A01 T01260084  RH  075%=      5-min Rain = 0
KWE2 110921Z 11003KT 13/09 A3023 RMK A01 T01270087  RH  077%=      5-min Rain = 0
KWE2 110922Z 10003KT 13/09 A3023 RMK A01 T01270090  RH  078%=      5-min Rain = 0
KWE2 110923Z 10003KT 13/09 A3023 RMK A01 T01270092  RH  079%=      5-min Rain = 0
KWE2 110924Z 11003KT 13/09 A3023 RMK A01 T01280093  RH  079%=      5-min Rain = 0
KWE2 110925Z 10003KT 13/09 A3023 RMK A01 T01280093  RH  080%=      5-min Rain = 0
KWE2 110926Z 10003KT 13/09 A3023 RMK A01 T01280094  RH  080%=      5-min Rain = 0
KWE2 110927Z 10003KT 13/09 A3023 RMK A01 T01280093  RH  079%=      5-min Rain = 0
KWE2 110928Z 10003KT 13/09 A3023 RMK A01 T01280093  RH  079%=      5-min Rain = 0
KWE2 110929Z 10003KT 13/09 A3023 RMK A01 T01280092  RH  078%=      5-min Rain = 0
KWE2 110930Z 10003KT 13/09 A3023 RMK A01 T01290089  RH  077%=      5-min Rain = 0
KWE2 110931Z 10003KT 13/09 A3023 RMK A01 T01290086  RH  075%=      5-min Rain = 0
KWE2 110932Z 10003KT 13/09 A3023 RMK A01 T01290085  RH  075%=      5-min Rain = 0
KWE2 110933Z 11003KT 13/08 A3023 RMK A01 T01290083  RH  073%=      5-min Rain = 0
KWE2 110934Z 11003KT 13/08 A3023 RMK A01 T01280082  RH  073%=      5-min Rain = 0
KWE2 110935Z 11003KT 13/08 A3023 RMK A01 T01270083  RH  074%=      5-min Rain = 0
KWE2 110936Z 11003KT 13/08 A3023 RMK A01 T01270083  RH  075%=      5-min Rain = 0
KWE2 110937Z 11003KT 13/08 A3023 RMK A01 T01260083  RH  075%=      5-min Rain = 0
KWE2 110938Z 11003KT 13/08 A3023 RMK A01 T01260084  RH  075%=      5-min Rain = 0
KWE2 110939Z 11003KT 13/09 A3023 RMK A01 T01260087  RH  077%=      5-min Rain = 0
KWE2 110940Z 11003KT 13/09 A3023 RMK A01 T01270086  RH  076%=      5-min Rain = 0
KWE2 110941Z 11003KT 13/09 A3023 RMK A01 T01280086  RH  075%=      5-min Rain = 0
KWE2 110942Z 11003KT 13/09 A3023 RMK A01 T01290087  RH  076%=      5-min Rain = 0
KWE2 110943Z 11003KT 13/09 A3023 RMK A01 T01300087  RH  075%=      5-min Rain = 0
KWE2 110944Z 11003KT 13/09 A3023 RMK A01 T01310087  RH  074%=      5-min Rain = 0
KWE2 110945Z 11003KT 13/09 A3023 RMK A01 T01320087  RH  074%=      5-min Rain = 0
KWE2 110946Z 11003KT 13/09 A3023 RMK A01 T01330087  RH  074%=      5-min Rain = 0
KWE2 110947Z 10003KT 13/09 A3023 RMK A01 T01330086  RH  073%=      5-min Rain = 0
KWE2 110948Z 10003KT 13/09 A3023 RMK A01 T01330086  RH  073%=      5-min Rain = 0
KWE2 110949Z 10003KT 13/09 A3023 RMK A01 T01330086  RH  073%=      5-min Rain = 0
KWE2 110950Z 10002KT 13/09 A3023 RMK A01 T01340086  RH  073%=      5-min Rain = 0
KWE2 110951Z 11002KT 13/08 A3023 RMK A01 T01320082  RH  071%=      5-min Rain = 0
KWE2 110952Z 11002KT 13/08 A3023 RMK A01 T01290078  RH  071%=      5-min Rain = 0
KWE2 110953Z 11002KT 13/08 A3023 RMK A01 T01260079  RH  073%=      5-min Rain = 0
KWE2 110954Z 11002KT 13/08 A3023 RMK A01 T01250079  RH  074%=      5-min Rain = 0
KWE2 110955Z 11002KT 12/08 A3022 RMK A01 T01230077  RH  074%=      5-min Rain = 0
KWE2 110956Z 11002KT 12/08 A3022 RMK A01 T01220077  RH  074%=      5-min Rain = 0
KWE2 110957Z 11002KT 12/08 A3022 RMK A01 T01200076  RH  074%=      5-min Rain = 0
KWE2 110958Z 10002KT 12/08 A3022 RMK A01 T01200076  RH  075%=      5-min Rain = 0
KWE2 110959Z 10002KT 12/08 A3022 RMK A01 T01190076  RH  075%=      5-min Rain = 0
KWE2 111000Z 10002KT 12/08 A3022 RMK A01 T01190076  RH  075%=      5-min Rain = 0
KWE2 111001Z 10002KT 12/08 A3022 RMK A01 T01180075  RH  075%=      5-min Rain = 0
KWE2 111002Z 11002KT 12/08 A3022 RMK A01 T01170076  RH  076%=      5-min Rain = 0
KWE2 111003Z 11002KT 12/08 A3022 RMK A01 T01170076  RH  076%=      5-min Rain = 0
KWE2 111004Z 11002KT 12/08 A3022 RMK A01 T01170076  RH  076%=      5-min Rain = 0
KWE2 111005Z 11002KT 12/08 A3022 RMK A01 T01170076  RH  076%=      5-min Rain = 0
KWE2 111006Z 11002KT 12/08 A3022 RMK A01 T01170076  RH  076%=      5-min Rain = 0
KWE2 111007Z 11002KT 12/08 A3022 RMK A01 T01160076  RH  076%=      5-min Rain = 0
KWE2 111008Z 11002KT 12/08 A3022 RMK A01 T01160075  RH  076%=      5-min Rain = 0
KWE2 111009Z 12002KT 12/08 A3022 RMK A01 T01150075  RH  076%=      5-min Rain = 0
KWE2 111010Z 11002KT 12/08 A3022 RMK A01 T01150075  RH  076%=      5-min Rain = 0
KWE2 111011Z 11002KT 11/07 A3022 RMK A01 T01140074  RH  076%=      5-min Rain = 0
KWE2 111012Z 11002KT 11/07 A3022 RMK A01 T01140074  RH  077%=      5-min Rain = 0
KWE2 111013Z 11002KT 11/08 A3022 RMK A01 T01140075  RH  077%=      5-min Rain = 0
KWE2 111014Z 11002KT 11/08 A3022 RMK A01 T01140075  RH  077%=      5-min Rain = 0
KWE2 111015Z 11002KT 11/08 A3022 RMK A01 T01140075  RH  077%=      5-min Rain = 0
KWE2 111016Z 11002KT 11/08 A3022 RMK A01 T01140075  RH  077%=      5-min Rain = 0
KWE2 111017Z 11002KT 11/08 A3022 RMK A01 T01140075  RH  077%=      5-min Rain = 0
KWE2 111018Z 11002KT 11/08 A3022 RMK A01 T01140075  RH  077%=      5-min Rain = 0
KWE2 111019Z 11002KT 11/08 A3022 RMK A01 T01140076  RH  077%=      5-min Rain = 0
KWE2 111020Z 11002KT 11/08 A3022 RMK A01 T01140076  RH  077%=      5-min Rain = 0
KWE2 111021Z 11002KT 12/08 A3022 RMK A01 T01150076  RH  077%=      5-min Rain = 0
KWE2 111022Z 11002KT 12/08 A3022 RMK A01 T01150076  RH  077%=      5-min Rain = 0
KWE2 111023Z 11002KT 12/08 A3022 RMK A01 T01150077  RH  077%=      5-min Rain = 0
KWE2 111024Z 11002KT 12/08 A3022 RMK A01 T01160076  RH  077%=      5-min Rain = 0
KWE2 111025Z 11002KT 12/08 A3022 RMK A01 T01160077  RH  077%=      5-min Rain = 0
KWE2 111026Z 11002KT 12/08 A3022 RMK A01 T01170077  RH  077%=      5-min Rain = 0
KWE2 111027Z 11002KT 12/08 A3022 RMK A01 T01170076  RH  076%=      5-min Rain = 0
KWE2 111028Z 11002KT 12/08 A3022 RMK A01 T01170076  RH  076%=      5-min Rain = 0
KWE2 111029Z 11002KT 12/08 A3022 RMK A01 T01170076  RH  076%=      5-min Rain = 0
KWE2 111030Z 11002KT 12/08 A3022 RMK A01 T01170076  RH  076%=      5-min Rain = 0
KWE2 111031Z 11002KT 12/08 A3022 RMK A01 T01170075  RH  075%=      5-min Rain = 0
KWE2 111032Z 11002KT 12/08 A3022 RMK A01 T01170076  RH  075%=      5-min Rain = 0
KWE2 111033Z 11002KT 12/08 A3022 RMK A01 T01170076  RH  075%=      5-min Rain = 0
KWE2 111034Z 11002KT 12/08 A3022 RMK A01 T01180076  RH  075%=      5-min Rain = 0
KWE2 111035Z 11002KT 12/08 A3022 RMK A01 T01170076  RH  076%=      5-min Rain = 0
KWE2 111036Z 11002KT 12/08 A3022 RMK A01 T01180076  RH  076%=      5-min Rain = 0
KWE2 111037Z 11002KT 12/08 A3023 RMK A01 T01180077  RH  076%=      5-min Rain = 0
KWE2 111038Z 11002KT 12/08 A3023 RMK A01 T01180078  RH  076%=      5-min Rain = 0
KWE2 111039Z 11002KT 12/08 A3023 RMK A01 T01180077  RH  076%=      5-min Rain = 0
KWE2 111040Z 11002KT 12/08 A3023 RMK A01 T01180077  RH  076%=      5-min Rain = 0
KWE2 111041Z 11002KT 12/08 A3023 RMK A01 T01180076  RH  076%=      5-min Rain = 0
KWE2 111042Z 11002KT 12/08 A3023 RMK A01 T01180076  RH  075%=      5-min Rain = 0
KWE2 111043Z 11002KT 12/08 A3023 RMK A01 T01180076  RH  076%=      5-min Rain = 0
KWE2 111044Z 11002KT 12/08 A3023 RMK A01 T01180078  RH  077%=      5-min Rain = 0
KWE2 111045Z 11002KT 12/08 A3023 RMK A01 T01180078  RH  077%=      5-min Rain = 0
KWE2 111046Z 11002KT 12/08 A3023 RMK A01 T01190078  RH  076%=      5-min Rain = 0
KWE2 111047Z 11002KT 12/08 A3023 RMK A01 T01180075  RH  075%=      5-min Rain = 0
KWE2 111048Z 11002KT 12/07 A3023 RMK A01 T01180074  RH  075%=      5-min Rain = 0
KWE2 111049Z 11002KT 12/07 A3023 RMK A01 T01170074  RH  075%=      5-min Rain = 0
KWE2 111050Z 11002KT 12/07 A3023 RMK A01 T01160074  RH  075%=      5-min Rain = 0
KWE2 111051Z 11002KT 12/08 A3023 RMK A01 T01150075  RH  076%=      5-min Rain = 0
KWE2 111052Z 11002KT 12/07 A3023 RMK A01 T01150074  RH  076%=      5-min Rain = 0
KWE2 111053Z 11001KT 11/07 A3023 RMK A01 T01140074  RH  076%=      5-min Rain = 0
KWE2 111054Z 11001KT 11/07 A3023 RMK A01 T01140074  RH  077%=      5-min Rain = 0
KWE2 111055Z 11001KT 11/07 A3023 RMK A01 T01130073  RH  076%=      5-min Rain = 0
KWE2 111056Z 11001KT 11/07 A3023 RMK A01 T01120072  RH  076%=      5-min Rain = 0
KWE2 111057Z 11001KT 11/07 A3023 RMK A01 T01110072  RH  077%=      5-min Rain = 0
KWE2 111058Z 11001KT 11/07 A3023 RMK A01 T01110072  RH  077%=      5-min Rain = 0
KWE2 111059Z 11000KT 11/07 A3023 RMK A01 T01100072  RH  077%=      5-min Rain = 0
KWE2 111100Z 11000KT 11/07 A3023 RMK A01 T01090072  RH  078%=      5-min Rain = 0
KWE2 111101Z 00000KT 11/07 A3023 RMK A01 T01090072  RH  078%=      5-min Rain = 0
KWE2 111102Z 00000KT 11/07 A3023 RMK A01 T01080072  RH  078%=      5-min Rain = 0
KWE2 111103Z 00000KT 11/07 A3023 RMK A01 T01080072  RH  078%=      5-min Rain = 0
KWE2 111104Z 35000KT 11/07 A3023 RMK A01 T01070072  RH  079%=      5-min Rain = 0
KWE2 111105Z 35001KT 11/07 A3023 RMK A01 T01070071  RH  079%=      5-min Rain = 0
KWE2 111106Z 35001KT 11/07 A3023 RMK A01 T01070071  RH  079%=      5-min Rain = 0
KWE2 111107Z 34001KT 11/07 A3023 RMK A01 T01060072  RH  079%=      5-min Rain = 0
KWE2 111108Z 34001KT 11/07 A3023 RMK A01 T01060073  RH  080%=      5-min Rain = 0
KWE2 111109Z 33001KT 11/07 A3023 RMK A01 T01060073  RH  080%=      5-min Rain = 0
KWE2 111110Z 33001KT 11/07 A3023 RMK A01 T01060074  RH  080%=      5-min Rain = 0
KWE2 111111Z 33001KT 11/07 A3023 RMK A01 T01060074  RH  081%=      5-min Rain = 0
KWE2 111112Z 34001KT 11/08 A3023 RMK A01 T01060075  RH  081%=      5-min Rain = 0
KWE2 111113Z 34001KT 11/08 A3023 RMK A01 T01060075  RH  081%=      5-min Rain = 0
KWE2 111114Z 34001KT 11/08 A3023 RMK A01 T01070076  RH  081%=      5-min Rain = 0
KWE2 111115Z 34001KT 11/08 A3024 RMK A01 T01070076  RH  081%=      5-min Rain = 0
KWE2 111116Z 34001KT 11/08 A3024 RMK A01 T01070076  RH  081%=      5-min Rain = 0
KWE2 111117Z 34001KT 11/08 A3024 RMK A01 T01080076  RH  081%=      5-min Rain = 0
KWE2 111118Z 34001KT 11/08 A3024 RMK A01 T01080077  RH  081%=      5-min Rain = 0
KWE2 111119Z 34001KT 11/08 A3024 RMK A01 T01080076  RH  081%=      5-min Rain = 0
KWE2 111120Z 34002KT 11/08 A3024 RMK A01 T01080076  RH  081%=      5-min Rain = 0
KWE2 111121Z 34002KT 11/08 A3024 RMK A01 T01080076  RH  080%=      5-min Rain = 0
KWE2 111122Z 34002KT 11/08 A3024 RMK A01 T01080076  RH  080%=      5-min Rain = 0
KWE2 111123Z 34002KT 11/08 A3024 RMK A01 T01080075  RH  080%=      5-min Rain = 0
KWE2 111124Z 34002KT 11/08 A3024 RMK A01 T01080076  RH  081%=      5-min Rain = 0
KWE2 111125Z 34002KT 11/08 A3024 RMK A01 T01080076  RH  081%=      5-min Rain = 0
KWE2 111126Z 34002KT 11/08 A3024 RMK A01 T01080077  RH  081%=      5-min Rain = 0
KWE2 111127Z 34002KT 11/08 A3024 RMK A01 T01080076  RH  081%=      5-min Rain = 0
KWE2 111128Z 34002KT 11/08 A3024 RMK A01 T01070076  RH  081%=      5-min Rain = 0
KWE2 111129Z 34002KT 11/08 A3024 RMK A01 T01070077  RH  081%=      5-min Rain = 0
KWE2 111130Z 34002KT 11/08 A3024 RMK A01 T01070077  RH  081%=      5-min Rain = 0
KWE2 111131Z 34002KT 11/08 A3024 RMK A01 T01070076  RH  081%=      5-min Rain = 0
KWE2 111132Z 34002KT 11/08 A3024 RMK A01 T01070075  RH  081%=      5-min Rain = 0
KWE2 111133Z 34001KT 11/08 A3024 RMK A01 T01060075  RH  081%=      5-min Rain = 0
KWE2 111134Z 34001KT 11/08 A3024 RMK A01 T01070076  RH  081%=      5-min Rain = 0
KWE2 111135Z 34002KT 11/07 A3024 RMK A01 T01060074  RH  081%=      5-min Rain = 0
KWE2 111136Z 34002KT 11/07 A3024 RMK A01 T01060074  RH  081%=      5-min Rain = 0
KWE2 111137Z 34001KT 11/08 A3024 RMK A01 T01060075  RH  081%=      5-min Rain = 0
KWE2 111138Z 34001KT 11/08 A3024 RMK A01 T01060075  RH  081%=      5-min Rain = 0
KWE2 111139Z 34002KT 11/08 A3024 RMK A01 T01060075  RH  081%=      5-min Rain = 0
KWE2 111140Z 34002KT 11/08 A3024 RMK A01 T01060076  RH  081%=      5-min Rain = 0
KWE2 111141Z 34002KT 11/08 A3024 RMK A01 T01060075  RH  081%=      5-min Rain = 0
KWE2 111142Z 34003KT 11/08 A3024 RMK A01 T01060076  RH  081%=      5-min Rain = 0
KWE2 111143Z 34003KT 11/08 A3024 RMK A01 T01060075  RH  081%=      5-min Rain = 0
KWE2 111144Z 33003KT 11/08 A3024 RMK A01 T01060075  RH  081%=      5-min Rain = 0
KWE2 111145Z 33003KT 11/07 A3024 RMK A01 T01060074  RH  081%=      5-min Rain = 0
KWE2 111146Z 33003KT 11/07 A3024 RMK A01 T01050073  RH  081%=      5-min Rain = 0
KWE2 111147Z 33003KT 10/07 A3024 RMK A01 T01040073  RH  081%=      5-min Rain = 0
KWE2 111148Z 33003KT 10/07 A3024 RMK A01 T01040073  RH  081%=      5-min Rain = 0
KWE2 111149Z 33003KT 10/07 A3024 RMK A01 T01030073  RH  082%=      5-min Rain = 0
KWE2 111150Z 33003KT 10/07 A3024 RMK A01 T01030074  RH  082%=      5-min Rain = 0
KWE2 111151Z 33003KT 10/08 A3024 RMK A01 T01030075  RH  082%=      5-min Rain = 0
KWE2 111152Z 33003KT 10/08 A3024 RMK A01 T01030075  RH  083%=      5-min Rain = 0
KWE2 111153Z 33003KT 10/08 A3024 RMK A01 T01030075  RH  083%=      5-min Rain = 0
KWE2 111154Z 33003KT 10/08 A3024 RMK A01 T01030075  RH  083%=      5-min Rain = 0
KWE2 111155Z 33003KT 10/08 A3024 RMK A01 T01030075  RH  083%=      5-min Rain = 0
KWE2 111156Z 33003KT 10/08 A3024 RMK A01 T01040075  RH  083%=      5-min Rain = 0
KWE2 111157Z 33003KT 10/08 A3024 RMK A01 T01040075  RH  083%=      5-min Rain = 0
KWE2 111158Z 33003KT 10/08 A3024 RMK A01 T01040076  RH  083%=      5-min Rain = 0
KWE2 111159Z 33003KT 10/08 A3024 RMK A01 T01040076  RH  083%=      5-min Rain = 0
KWE2 111200Z 33003KT 10/08 A3024 RMK A01 T01040076  RH  083%=      5-min Rain = 0
KWE2 111201Z 33003KT 10/08 A3024 RMK A01 T01040076  RH  083%=      5-min Rain = 0
KWE2 111202Z 33003KT 10/08 A3024 RMK A01 T01040076  RH  083%=      5-min Rain = 0
KWE2 111203Z 33003KT 10/08 A3024 RMK A01 T01040076  RH  083%=      5-min Rain = 0
KWE2 111204Z 33003KT 10/08 A3024 RMK A01 T01040077  RH  083%=      5-min Rain = 0
KWE2 111205Z 32003KT 10/08 A3024 RMK A01 T01040077  RH  083%=      5-min Rain = 0
KWE2 111206Z 32004KT 10/08 A3024 RMK A01 T01040077  RH  083%=      5-min Rain = 0
KWE2 111207Z 32004KT 10/08 A3024 RMK A01 T01040077  RH  083%=      5-min Rain = 0
KWE2 111208Z 33004KT 10/08 A3024 RMK A01 T01040076  RH  083%=      5-min Rain = 0
KWE2 111209Z 32004KT 10/08 A3024 RMK A01 T01040076  RH  083%=      5-min Rain = 0
KWE2 111210Z 32004KT 10/08 A3024 RMK A01 T01040075  RH  082%=      5-min Rain = 0
KWE2 111211Z 33004KT 10/07 A3024 RMK A01 T01040074  RH  082%=      5-min Rain = 0
KWE2 111212Z 33004KT 10/08 A3024 RMK A01 T01040075  RH  082%=      5-min Rain = 0
KWE2 111213Z 33004KT 10/08 A3024 RMK A01 T01040076  RH  083%=      5-min Rain = 0
KWE2 111214Z 33004KT 10/08 A3024 RMK A01 T01040076  RH  083%=      5-min Rain = 0
KWE2 111215Z 33004KT 10/08 A3024 RMK A01 T01030076  RH  083%=      5-min Rain = 0
KWE2 111216Z 33004KT 10/08 A3024 RMK A01 T01030077  RH  084%=      5-min Rain = 0
KWE2 111217Z 33004KT 10/08 A3024 RMK A01 T01030078  RH  084%=      5-min Rain = 0
KWE2 111218Z 34004KT 10/08 A3024 RMK A01 T01030078  RH  085%=      5-min Rain = 0
KWE2 111219Z 34004KT 10/08 A3024 RMK A01 T01030078  RH  085%=      5-min Rain = 0
KWE2 111220Z 34004KT 10/08 A3024 RMK A01 T01030079  RH  085%=      5-min Rain = 0
KWE2 111221Z 34004KT 10/08 A3024 RMK A01 T01030079  RH  085%=      5-min Rain = 0
KWE2 111222Z 34004KT 10/08 A3024 RMK A01 T01030078  RH  085%=      5-min Rain = 0
KWE2 111223Z 34004KT 10/08 A3024 RMK A01 T01030078  RH  085%=      5-min Rain = 0
KWE2 111224Z 34004KT 10/08 A3024 RMK A01 T01030078  RH  085%=      5-min Rain = 0
KWE2 111225Z 34004KT 10/08 A3024 RMK A01 T01030078  RH  085%=      5-min Rain = 0
KWE2 111226Z 34004KT 10/08 A3024 RMK A01 T01020078  RH  085%=      5-min Rain = 0
KWE2 111227Z 34003KT 10/08 A3024 RMK A01 T01020078  RH  085%=      5-min Rain = 0
KWE2 111228Z 34003KT 10/08 A3024 RMK A01 T01010077  RH  085%=      5-min Rain = 0
KWE2 111229Z 34003KT 10/08 A3024 RMK A01 T01020077  RH  085%=      5-min Rain = 0
KWE2 111230Z 34003KT 10/08 A3024 RMK A01 T01010077  RH  085%=      5-min Rain = 0
KWE2 111231Z 35003KT 10/08 A3024 RMK A01 T01010077  RH  085%=      5-min Rain = 0
KWE2 111232Z 35004KT 10/08 A3024 RMK A01 T01020078  RH  085%=      5-min Rain = 0
KWE2 111233Z 35004KT 10/08 A3024 RMK A01 T01020079  RH  086%=      5-min Rain = 0
KWE2 111234Z 35004KT 10/08 A3024 RMK A01 T01010079  RH  086%=      5-min Rain = 0
KWE2 111235Z 35004KT 10/08 A3025 RMK A01 T01020078  RH  086%=      5-min Rain = 0
KWE2 111236Z 35004KT 10/08 A3024 RMK A01 T01020077  RH  085%=      5-min Rain = 0
KWE2 111237Z 36004KT 10/08 A3024 RMK A01 T01010076  RH  084%=      5-min Rain = 0
KWE2 111238Z 00003KT 10/08 A3024 RMK A01 T01010076  RH  084%=      5-min Rain = 0
KWE2 111239Z 00003KT 10/08 A3024 RMK A01 T01020075  RH  084%=      5-min Rain = 0
KWE2 111240Z 00003KT 10/08 A3024 RMK A01 T01010075  RH  084%=      5-min Rain = 0
KWE2 111241Z 00003KT 10/08 A3024 RMK A01 T01020076  RH  084%=      5-min Rain = 0
KWE2 111242Z 00003KT 10/08 A3024 RMK A01 T01020076  RH  084%=      5-min Rain = 0
KWE2 111243Z 36003KT 10/08 A3024 RMK A01 T01020078  RH  085%=      5-min Rain = 0
KWE2 111244Z 35003KT 10/08 A3024 RMK A01 T01040080  RH  085%=      5-min Rain = 0
KWE2 111245Z 35003KT 10/08 A3024 RMK A01 T01040078  RH  084%=      5-min Rain = 0
KWE2 111246Z 35003KT 11/08 A3024 RMK A01 T01050077  RH  083%=      5-min Rain = 0
KWE2 111247Z 35003KT 11/08 A3024 RMK A01 T01050077  RH  083%=      5-min Rain = 0
KWE2 111248Z 36003KT 11/08 A3024 RMK A01 T01050077  RH  083%=      5-min Rain = 0
KWE2 111249Z 00002KT 11/08 A3024 RMK A01 T01050076  RH  082%=      5-min Rain = 0
KWE2 111250Z 00002KT 11/08 A3024 RMK A01 T01050075  RH  082%=      5-min Rain = 0
KWE2 111251Z 00003KT 11/08 A3024 RMK A01 T01050076  RH  082%=      5-min Rain = 0
KWE2 111252Z 00003KT 11/08 A3024 RMK A01 T01050077  RH  082%=      5-min Rain = 0
KWE2 111253Z 00003KT 11/08 A3024 RMK A01 T01060077  RH  082%=      5-min Rain = 0
KWE2 111254Z 00002KT 11/08 A3024 RMK A01 T01060077  RH  082%=      5-min Rain = 0
KWE2 111255Z 00003KT 11/08 A3024 RMK A01 T01070077  RH  082%=      5-min Rain = 0
KWE2 111256Z 00003KT 11/08 A3024 RMK A01 T01080078  RH  082%=      5-min Rain = 0
KWE2 111257Z 36003KT 11/08 A3024 RMK A01 T01080078  RH  082%=      5-min Rain = 0
KWE2 111258Z 35003KT 11/08 A3024 RMK A01 T01080078  RH  081%=      5-min Rain = 0
KWE2 111259Z 35004KT 11/08 A3024 RMK A01 T01080077  RH  081%=      5-min Rain = 0
KWE2 111300Z 35004KT 11/08 A3024 RMK A01 T01090077  RH  081%=      5-min Rain = 0
KWE2 111301Z 35003KT 11/08 A3024 RMK A01 T01090076  RH  080%=      5-min Rain = 0
KWE2 111302Z 36004KT 11/08 A3024 RMK A01 T01090077  RH  080%=      5-min Rain = 0
KWE2 111303Z 00003KT 11/08 A3024 RMK A01 T01090077  RH  080%=      5-min Rain = 0
KWE2 111304Z 35003KT 11/08 A3024 RMK A01 T01100077  RH  080%=      5-min Rain = 0
KWE2 111305Z 35003KT 11/08 A3024 RMK A01 T01100078  RH  080%=      5-min Rain = 0
KWE2 111306Z 35003KT 11/08 A3024 RMK A01 T01110078  RH  080%=      5-min Rain = 0
KWE2 111307Z 35003KT 11/08 A3024 RMK A01 T01120079  RH  080%=      5-min Rain = 0
KWE2 111308Z 36003KT 11/08 A3024 RMK A01 T01120079  RH  080%=      5-min Rain = 0
KWE2 111309Z 00003KT 11/08 A3024 RMK A01 T01130080  RH  080%=      5-min Rain = 0
KWE2 111310Z 00003KT 11/08 A3024 RMK A01 T01140080  RH  080%=      5-min Rain = 0
KWE2 111311Z 00003KT 12/08 A3024 RMK A01 T01150081  RH  079%=      5-min Rain = 0
KWE2 111312Z 35003KT 12/08 A3024 RMK A01 T01160081  RH  079%=      5-min Rain = 0
KWE2 111313Z 35003KT 12/08 A3024 RMK A01 T01160081  RH  079%=      5-min Rain = 0
KWE2 111314Z 35003KT 12/08 A3024 RMK A01 T01170082  RH  079%=      5-min Rain = 0
KWE2 111315Z 35003KT 12/08 A3024 RMK A01 T01180082  RH  079%=      5-min Rain = 0
KWE2 111316Z 34003KT 12/08 A3024 RMK A01 T01190083  RH  079%=      5-min Rain = 0
KWE2 111317Z 33003KT 12/08 A3024 RMK A01 T01190083  RH  078%=      5-min Rain = 0
KWE2 111318Z 32003KT 12/08 A3024 RMK A01 T01200083  RH  078%=      5-min Rain = 0
KWE2 111319Z 32003KT 12/08 A3024 RMK A01 T01210084  RH  078%=      5-min Rain = 0
KWE2 111320Z 31003KT 12/09 A3024 RMK A01 T01210085  RH  078%=      5-min Rain = 0
KWE2 111321Z 31003KT 12/09 A3024 RMK A01 T01220085  RH  078%=      5-min Rain = 0
KWE2 111322Z 31003KT 12/09 A3024 RMK A01 T01230086  RH  078%=      5-min Rain = 0
KWE2 111323Z 31003KT 12/09 A3024 RMK A01 T01240086  RH  078%=      5-min Rain = 0
KWE2 111324Z 31003KT 13/09 A3024 RMK A01 T01250087  RH  077%=      5-min Rain = 0
KWE2 111325Z 31003KT 13/09 A3024 RMK A01 T01260088  RH  077%=      5-min Rain = 0
KWE2 111326Z 31003KT 13/09 A3024 RMK A01 T01270089  RH  077%=      5-min Rain = 0
KWE2 111327Z 31002KT 13/09 A3024 RMK A01 T01290090  RH  077%=      5-min Rain = 0
KWE2 111328Z 31002KT 13/09 A3024 RMK A01 T01300091  RH  077%=      5-min Rain = 0
KWE2 111329Z 31002KT 13/09 A3024 RMK A01 T01310091  RH  076%=      5-min Rain = 0
KWE2 111330Z 31002KT 13/09 A3024 RMK A01 T01330091  RH  076%=      5-min Rain = 0
KWE2 111331Z 31002KT 13/09 A3024 RMK A01 T01330092  RH  076%=      5-min Rain = 0
KWE2 111332Z 31002KT 14/09 A3024 RMK A01 T01350093  RH  076%=      5-min Rain = 0
KWE2 111333Z 31002KT 14/09 A3024 RMK A01 T01360093  RH  075%=      5-min Rain = 0
KWE2 111334Z 31001KT 14/09 A3024 RMK A01 T01370093  RH  075%=      5-min Rain = 0
KWE2 111335Z 32001KT 14/09 A3024 RMK A01 T01380093  RH  074%=      5-min Rain = 0
KWE2 111336Z 32001KT 14/09 A3024 RMK A01 T01390094  RH  074%=      5-min Rain = 0
KWE2 111337Z 33001KT 14/10 A3024 RMK A01 T01400095  RH  074%=      5-min Rain = 0
KWE2 111338Z 33001KT 14/10 A3024 RMK A01 T01410095  RH  074%=      5-min Rain = 0
KWE2 111339Z 33001KT 14/10 A3025 RMK A01 T01420095  RH  073%=      5-min Rain = 0
KWE2 111340Z 33001KT 14/10 A3025 RMK A01 T01420095  RH  073%=      5-min Rain = 0
KWE2 111341Z 33001KT 14/10 A3025 RMK A01 T01440096  RH  073%=      5-min Rain = 0
KWE2 111342Z 33001KT 14/10 A3025 RMK A01 T01440095  RH  072%=      5-min Rain = 0
KWE2 111343Z 33002KT 15/10 A3025 RMK A01 T01450095  RH  072%=      5-min Rain = 0
KWE2 111344Z 33001KT 15/10 A3025 RMK A01 T01460095  RH  071%=      5-min Rain = 0
KWE2 111345Z 33001KT 15/10 A3025 RMK A01 T01470096  RH  071%=      5-min Rain = 0
KWE2 111346Z 33001KT 15/10 A3025 RMK A01 T01490096  RH  071%=      5-min Rain = 0
KWE2 111347Z 35001KT 15/10 A3025 RMK A01 T01500097  RH  070%=      5-min Rain = 0
KWE2 111348Z 34000KT 15/10 A3025 RMK A01 T01510097  RH  070%=      5-min Rain = 0
KWE2 111349Z 34001KT 15/10 A3025 RMK A01 T01520098  RH  070%=      5-min Rain = 0
KWE2 111350Z 33001KT 15/10 A3025 RMK A01 T01520097  RH  070%=      5-min Rain = 0
KWE2 111351Z 33001KT 15/10 A3025 RMK A01 T01530098  RH  070%=      5-min Rain = 0
KWE2 111352Z 33001KT 15/10 A3025 RMK A01 T01540098  RH  070%=      5-min Rain = 0
KWE2 111353Z 33001KT 16/10 A3025 RMK A01 T01550099  RH  069%=      5-min Rain = 0
KWE2 111354Z 34001KT 16/10 A3025 RMK A01 T01560099  RH  069%=      5-min Rain = 0
KWE2 111355Z 34001KT 16/10 A3025 RMK A01 T01560100  RH  069%=      5-min Rain = 0
KWE2 111356Z 34002KT 16/10 A3025 RMK A01 T01570100  RH  069%=      5-min Rain = 0
KWE2 111357Z 33002KT 16/10 A3025 RMK A01 T01570100  RH  069%=      5-min Rain = 0
KWE2 111358Z 34001KT 16/10 A3025 RMK A01 T01590102  RH  069%=      5-min Rain = 0
KWE2 111359Z 34002KT 16/10 A3025 RMK A01 T01600102  RH  068%=      5-min Rain = 0
KWE2 111400Z 34002KT 16/10 A3025 RMK A01 T01610103  RH  068%=      5-min Rain = 0
KWE2 111401Z 34002KT 16/10 A3025 RMK A01 T01620103  RH  068%=      5-min Rain = 0
KWE2 111402Z 33002KT 16/10 A3025 RMK A01 T01630104  RH  068%=      5-min Rain = 0
KWE2 111403Z 32001KT 16/10 A3025 RMK A01 T01640103  RH  067%=      5-min Rain = 0
KWE2 111404Z 34001KT 17/10 A3025 RMK A01 T01650104  RH  067%=      5-min Rain = 0
KWE2 111405Z 34001KT 17/10 A3025 RMK A01 T01660104  RH  067%=      5-min Rain = 0
KWE2 111406Z 33002KT 17/10 A3025 RMK A01 T01670104  RH  066%=      5-min Rain = 0
KWE2 111407Z 33002KT 17/10 A3025 RMK A01 T01690103  RH  065%=      5-min Rain = 0
KWE2 111408Z 33002KT 17/10 A3025 RMK A01 T01700101  RH  064%=      5-min Rain = 0
KWE2 111409Z 35001KT 17/10 A3025 RMK A01 T01700103  RH  064%=      5-min Rain = 0
KWE2 111410Z 35001KT 17/11 A3025 RMK A01 T01720105  RH  065%=      5-min Rain = 0
KWE2 111411Z 35002KT 17/11 A3025 RMK A01 T01730105  RH  064%=      5-min Rain = 0
KWE2 111412Z 00001KT 17/10 A3025 RMK A01 T01740104  RH  064%=      5-min Rain = 0
KWE2 111413Z 00001KT 18/10 A3025 RMK A01 T01750103  RH  062%=      5-min Rain = 0
KWE2 111414Z 32001KT 18/10 A3025 RMK A01 T01770102  RH  061%=      5-min Rain = 0
KWE2 111415Z 00000KT 18/10 A3025 RMK A01 T01780103  RH  061%=      5-min Rain = 0
KWE2 111416Z 32000KT 18/11 A3025 RMK A01 T01800105  RH  061%=      5-min Rain = 0
KWE2 111417Z 33000KT 18/10 A3025 RMK A01 T01810104  RH  061%=      5-min Rain = 0
KWE2 111418Z 00000KT 18/10 A3025 RMK A01 T01820102  RH  059%=      5-min Rain = 0
KWE2 111419Z 29000KT 18/10 A3025 RMK A01 T01830102  RH  059%=      5-min Rain = 0
KWE2 111420Z 30000KT 18/10 A3025 RMK A01 T01830103  RH  059%=      5-min Rain = 0
KWE2 111421Z 26001KT 18/10 A3025 RMK A01 T01840103  RH  059%=      5-min Rain = 0
KWE2 111422Z 25002KT 18/10 A3025 RMK A01 T01840103  RH  059%=      5-min Rain = 0
KWE2 111423Z 27002KT 18/11 A3025 RMK A01 T01840105  RH  060%=      5-min Rain = 0
KWE2 111424Z 26002KT 18/10 A3025 RMK A01 T01840104  RH  059%=      5-min Rain = 0
KWE2 111425Z 26002KT 18/10 A3025 RMK A01 T01840103  RH  059%=      5-min Rain = 0
KWE2 111426Z 26002KT 18/10 A3025 RMK A01 T01840104  RH  059%=      5-min Rain = 0
KWE2 111427Z 25002KT 18/10 A3025 RMK A01 T01840104  RH  060%=      5-min Rain = 0
KWE2 111428Z 24002KT 19/11 A3025 RMK A01 T01850105  RH  060%=      5-min Rain = 0
KWE2 111429Z 27001KT 19/11 A3025 RMK A01 T01850106  RH  060%=      5-min Rain = 0
KWE2 111430Z 26000KT 19/11 A3025 RMK A01 T01860105  RH  059%=      5-min Rain = 0
KWE2 111431Z 25000KT 19/11 A3025 RMK A01 T01870106  RH  059%=      5-min Rain = 0
KWE2 111432Z 23001KT 19/11 A3025 RMK A01 T01880105  RH  059%=      5-min Rain = 0
KWE2 111433Z 23001KT 19/11 A3025 RMK A01 T01890106  RH  058%=      5-min Rain = 0
KWE2 111434Z 27002KT 19/11 A3025 RMK A01 T01900107  RH  059%=      5-min Rain = 0
KWE2 111435Z 25003KT 19/11 A3025 RMK A01 T01910107  RH  058%=      5-min Rain = 0
KWE2 111436Z 26002KT 19/11 A3025 RMK A01 T01910106  RH  058%=      5-min Rain = 0
KWE2 111437Z 26002KT 19/11 A3025 RMK A01 T01920108  RH  058%=      5-min Rain = 0
KWE2 111438Z 24003KT 19/11 A3025 RMK A01 T01930108  RH  058%=      5-min Rain = 0
KWE2 111439Z 22003KT 19/11 A3025 RMK A01 T01940107  RH  057%=      5-min Rain = 0
KWE2 111440Z 21002KT 20/11 A3025 RMK A01 T01950107  RH  057%=      5-min Rain = 0
KWE2 111441Z 21002KT 20/11 A3025 RMK A01 T01950108  RH  057%=      5-min Rain = 0
KWE2 111442Z 22002KT 20/11 A3025 RMK A01 T01950109  RH  057%=      5-min Rain = 0
KWE2 111443Z 23002KT 20/11 A3025 RMK A01 T01960110  RH  058%=      5-min Rain = 0
KWE2 111444Z 21002KT 20/11 A3025 RMK A01 T01970112  RH  058%=      5-min Rain = 0
KWE2 111445Z 18002KT 20/11 A3025 RMK A01 T01990113  RH  058%=      5-min Rain = 0
KWE2 111446Z 20003KT 20/11 A3025 RMK A01 T02000112  RH  057%=      5-min Rain = 0
KWE2 111447Z 21003KT 20/11 A3025 RMK A01 T02010110  RH  056%=      5-min Rain = 0
KWE2 111448Z 23003KT 20/11 A3025 RMK A01 T02020111  RH  056%=      5-min Rain = 0
KWE2 111449Z 22004KT 20/11 A3025 RMK A01 T02030107  RH  054%=      5-min Rain = 0
KWE2 111450Z 20004KT 21/11 A3025 RMK A01 T02050110  RH  054%=      5-min Rain = 0
KWE2 111451Z 21006KT 21/11 A3025 RMK A01 T02070105  RH  052%=      5-min Rain = 0
KWE2 111452Z 22005KT 21/11 A3025 RMK A01 T02070106  RH  052%=      5-min Rain = 0
KWE2 111453Z 22005KT 21/11 A3025 RMK A01 T02080106  RH  052%=      5-min Rain = 0
KWE2 111454Z 21004KT 21/11 A3025 RMK A01 T02080108  RH  053%=      5-min Rain = 0
KWE2 111455Z 22005KT 21/11 A3025 RMK A01 T02090106  RH  052%=      5-min Rain = 0
KWE2 111456Z 21005KT 21/11 A3025 RMK A01 T02100109  RH  052%=      5-min Rain = 0
KWE2 111457Z 24005KT 21/11 A3025 RMK A01 T02110107  RH  051%=      5-min Rain = 0
KWE2 111458Z 24006KT 21/11 A3025 RMK A01 T02110107  RH  051%=      5-min Rain = 0
KWE2 111459Z 22005KT 21/11 A3025 RMK A01 T02110108  RH  052%=      5-min Rain = 0
KWE2 111500Z 22006KT 21/11 A3025 RMK A01 T02110108  RH  052%=      5-min Rain = 0
KWE2 111501Z 20005KT 21/11 A3025 RMK A01 T02120107  RH  051%=      5-min Rain = 0
KWE2 111502Z 20005KT 21/11 A3025 RMK A01 T02120107  RH  051%=      5-min Rain = 0
KWE2 111503Z 24005KT 21/11 A3025 RMK A01 T02120109  RH  052%=      5-min Rain = 0
KWE2 111504Z 24005KT 21/11 A3025 RMK A01 T02130108  RH  051%=      5-min Rain = 0
KWE2 111505Z 22006KT 21/11 A3025 RMK A01 T02140108  RH  051%=      5-min Rain = 0
KWE2 111506Z 21006KT 21/11 A3025 RMK A01 T02140108  RH  051%=      5-min Rain = 0
KWE2 111507Z 22004KT 21/11 A3025 RMK A01 T02140109  RH  051%=      5-min Rain = 0
KWE2 111508Z 23005KT 22/11 A3025 RMK A01 T02150110  RH  051%=      5-min Rain = 0
KWE2 111509Z 22005KT 22/11 A3025 RMK A01 T02160108  RH  050%=      5-min Rain = 0
KWE2 111510Z 21004KT 22/11 A3025 RMK A01 T02160109  RH  050%=      5-min Rain = 0
KWE2 111511Z 23005KT 22/11 A3025 RMK A01 T02160109  RH  050%=      5-min Rain = 0
KWE2 111512Z 26005KT 22/11 A3025 RMK A01 T02170107  RH  050%=      5-min Rain = 0
KWE2 111513Z 23005KT 22/11 A3025 RMK A01 T02170109  RH  050%=      5-min Rain = 0
KWE2 111514Z 23003KT 22/11 A3025 RMK A01 T02180108  RH  050%=      5-min Rain = 0
KWE2 111515Z 25003KT 22/11 A3025 RMK A01 T02180110  RH  050%=      5-min Rain = 0
KWE2 111516Z 25005KT 22/11 A3025 RMK A01 T02190111  RH  050%=      5-min Rain = 0
KWE2 111517Z 25004KT 22/11 A3025 RMK A01 T02200110  RH  050%=      5-min Rain = 0
KWE2 111518Z 25005KT 22/11 A3025 RMK A01 T02210111  RH  050%=      5-min Rain = 0
KWE2 111519Z 25005KT 22/11 A3025 RMK A01 T02220110  RH  049%=      5-min Rain = 0
KWE2 111520Z 22005KT 22/11 A3025 RMK A01 T02230110  RH  049%=      5-min Rain = 0
KWE2 111521Z 20004KT 22/11 A3025 RMK A01 T02230113  RH  050%=      5-min Rain = 0
KWE2 111522Z 21004KT 22/11 A3025 RMK A01 T02230111  RH  049%=      5-min Rain = 0
KWE2 111523Z 23002KT 22/11 A3025 RMK A01 T02220108  RH  048%=      5-min Rain = 0
KWE2 111524Z 18002KT 22/11 A3025 RMK A01 T02220111  RH  049%=      5-min Rain = 0
KWE2 111525Z 16003KT 22/11 A3025 RMK A01 T02240113  RH  049%=      5-min Rain = 0
KWE2 111526Z 22004KT 23/11 A3025 RMK A01 T02250112  RH  049%=      5-min Rain = 0
KWE2 111527Z 20004KT 23/11 A3025 RMK A01 T02270112  RH  048%=      5-min Rain = 0
KWE2 111528Z 19005KT 23/11 A3025 RMK A01 T02270114  RH  049%=      5-min Rain = 0
KWE2 111529Z 19005KT 23/11 A3025 RMK A01 T02270112  RH  048%=      5-min Rain = 0
KWE2 111530Z 19005KT 23/11 A3025 RMK A01 T02270113  RH  048%=      5-min Rain = 0
KWE2 111531Z 18005KT 23/11 A3025 RMK A01 T02270111  RH  048%=      5-min Rain = 0
KWE2 111532Z 20004KT 23/11 A3025 RMK A01 T02270110  RH  048%=      5-min Rain = 0
KWE2 111533Z 23003KT 23/11 A3025 RMK A01 T02260111  RH  048%=      5-min Rain = 0
KWE2 111534Z 23007KT 23/11 A3025 RMK A01 T02280107  RH  047%=      5-min Rain = 0
KWE2 111535Z 23006KT 23/11 A3025 RMK A01 T02290107  RH  046%=      5-min Rain = 0
KWE2 111536Z 23005KT 23/11 A3025 RMK A01 T02300106  RH  045%=      5-min Rain = 0
KWE2 111537Z 22005KT 23/11 A3025 RMK A01 T02300107  RH  046%=      5-min Rain = 0
KWE2 111538Z 20004KT 23/11 A3025 RMK A01 T02290106  RH  046%=      5-min Rain = 0
KWE2 111539Z 21004KT 23/11 A3025 RMK A01 T02300109  RH  046%=      5-min Rain = 0
KWE2 111540Z 22005KT 23/11 A3025 RMK A01 T02330107  RH  045%=      5-min Rain = 0
KWE2 111541Z 19004KT 23/11 A3025 RMK A01 T02320106  RH  045%=      5-min Rain = 0
KWE2 111542Z 19005KT 23/11 A3025 RMK A01 T02310107  RH  045%=      5-min Rain = 0
KWE2 111543Z 19005KT 23/11 A3025 RMK A01 T02310108  RH  046%=      5-min Rain = 0
KWE2 111544Z 19005KT 23/11 A3025 RMK A01 T02310105  RH  045%=      5-min Rain = 0
KWE2 111545Z 19003KT 23/10 A3025 RMK A01 T02310104  RH  045%=      5-min Rain = 0
KWE2 111546Z 21003KT 23/11 A3025 RMK A01 T02310105  RH  045%=      5-min Rain = 0
KWE2 111547Z 20003KT 23/11 A3025 RMK A01 T02320109  RH  046%=      5-min Rain = 0
KWE2 111548Z 21004KT 23/11 A3025 RMK A01 T02340108  RH  045%=      5-min Rain = 0
KWE2 111549Z 25004KT 24/11 A3025 RMK A01 T02370109  RH  045%=      5-min Rain = 0
KWE2 111550Z 26005KT 24/11 A3025 RMK A01 T02380108  RH  044%=      5-min Rain = 0
KWE2 111551Z 24003KT 24/11 A3025 RMK A01 T02380106  RH  043%=      5-min Rain = 0
KWE2 111552Z 26004KT 24/11 A3025 RMK A01 T02370106  RH  044%=      5-min Rain = 0
KWE2 111553Z 23006KT 24/11 A3025 RMK A01 T02370108  RH  044%=      5-min Rain = 0
KWE2 111554Z 23005KT 24/10 A3025 RMK A01 T02380104  RH  043%=      5-min Rain = 0
KWE2 111555Z 22005KT 24/10 A3025 RMK A01 T02370104  RH  043%=      5-min Rain = 0
KWE2 111556Z 22004KT 24/10 A3025 RMK A01 T02370102  RH  043%=      5-min Rain = 0
KWE2 111557Z 24005KT 24/10 A3025 RMK A01 T02370104  RH  043%=      5-min Rain = 0
KWE2 111558Z 25005KT 24/11 A3025 RMK A01 T02380106  RH  043%=      5-min Rain = 0
KWE2 111559Z 25005KT 24/11 A3025 RMK A01 T02390105  RH  043%=      5-min Rain = 0
KWE2 111600Z 24003KT 24/10 A3025 RMK A01 T02380103  RH  042%=      5-min Rain = 0
KWE2 111601Z 23004KT 24/10 A3025 RMK A01 T02380103  RH  043%=      5-min Rain = 0
KWE2 111602Z 24005KT 24/10 A3025 RMK A01 T02370103  RH  042%=      5-min Rain = 0
KWE2 111603Z 21003KT 24/10 A3025 RMK A01 T02380101  RH  042%=      5-min Rain = 0
KWE2 111604Z 24004KT 24/10 A3025 RMK A01 T02380101  RH  042%=      5-min Rain = 0
KWE2 111605Z 24004KT 24/10 A3025 RMK A01 T02380102  RH  042%=      5-min Rain = 0
KWE2 111606Z 22004KT 24/10 A3025 RMK A01 T02370101  RH  042%=      5-min Rain = 0
KWE2 111607Z 22004KT 24/10 A3025 RMK A01 T02370101  RH  042%=      5-min Rain = 0
KWE2 111608Z 22005KT 24/10 A3025 RMK A01 T02380102  RH  042%=      5-min Rain = 0
KWE2 111609Z 23003KT 24/10 A3025 RMK A01 T02390100  RH  041%=      5-min Rain = 0
KWE2 111610Z 23004KT 24/10 A3025 RMK A01 T02390102  RH  042%=      5-min Rain = 0
KWE2 111611Z 24006KT 24/10 A3025 RMK A01 T02400102  RH  041%=      5-min Rain = 0
KWE2 111612Z 24004KT 24/10 A3025 RMK A01 T02410101  RH  041%=      5-min Rain = 0
KWE2 111613Z 24003KT 24/10 A3025 RMK A01 T02420101  RH  041%=      5-min Rain = 0
KWE2 111614Z 26005KT 24/10 A3025 RMK A01 T02430101  RH  041%=      5-min Rain = 0
KWE2 111615Z 27003KT 24/10 A3025 RMK A01 T02440103  RH  041%=      5-min Rain = 0
KWE2 111616Z 24003KT 25/10 A3025 RMK A01 T02450102  RH  040%=      5-min Rain = 0
KWE2 111617Z 22005KT 25/10 A3025 RMK A01 T02450096  RH  039%=      5-min Rain = 0
KWE2 111618Z 21004KT 24/09 A3025 RMK A01 T02440094  RH  038%=      5-min Rain = 0
KWE2 111619Z 24001KT 24/10 A3025 RMK A01 T02440096  RH  039%=      5-min Rain = 0
KWE2 111620Z 19001KT 25/10 A3025 RMK A01 T02450097  RH  039%=      5-min Rain = 0
KWE2 111621Z 21004KT 25/10 A3025 RMK A01 T02480100  RH  039%=      5-min Rain = 0
KWE2 111622Z 19004KT 25/10 A3025 RMK A01 T02490102  RH  039%=      5-min Rain = 0
KWE2 111623Z 22004KT 25/10 A3025 RMK A01 T02490103  RH  040%=      5-min Rain = 0
KWE2 111624Z 23004KT 25/10 A3025 RMK A01 T02500100  RH  039%=      5-min Rain = 0
KWE2 111625Z 22004KT 25/10 A3025 RMK A01 T02490099  RH  039%=      5-min Rain = 0
KWE2 111626Z 22004KT 25/10 A3025 RMK A01 T02490100  RH  039%=      5-min Rain = 0
KWE2 111627Z 26004KT 25/10 A3025 RMK A01 T02480102  RH  040%=      5-min Rain = 0
KWE2 111628Z 27004KT 25/10 A3025 RMK A01 T02490100  RH  039%=      5-min Rain = 0
KWE2 111629Z 27004KT 25/10 A3025 RMK A01 T02490101  RH  039%=      5-min Rain = 0
KWE2 111630Z 26004KT 25/10 A3025 RMK A01 T02490101  RH  039%=      5-min Rain = 0
KWE2 111631Z 23003KT 25/10 A3025 RMK A01 T02490100  RH  039%=      5-min Rain = 0
KWE2 111632Z 21003KT 25/10 A3025 RMK A01 T02510100  RH  039%=      5-min Rain = 0
KWE2 111633Z 20003KT 25/10 A3025 RMK A01 T02510101  RH  039%=      5-min Rain = 0
KWE2 111634Z 22001KT 25/10 A3025 RMK A01 T02520102  RH  039%=      5-min Rain = 0
KWE2 111635Z 22002KT 25/10 A3024 RMK A01 T02540104  RH  039%=      5-min Rain = 0
KWE2 111636Z 21004KT 26/10 A3024 RMK A01 T02560103  RH  038%=      5-min Rain = 0
KWE2 111637Z 20005KT 26/10 A3024 RMK A01 T02560100  RH  037%=      5-min Rain = 0
KWE2 111638Z 19002KT 25/10 A3024 RMK A01 T02540100  RH  038%=      5-min Rain = 0
KWE2 111639Z 16001KT 25/10 A3024 RMK A01 T02540100  RH  038%=      5-min Rain = 0
KWE2 111640Z 15002KT 26/10 A3024 RMK A01 T02570101  RH  037%=      5-min Rain = 0
KWE2 111641Z 18004KT 26/10 A3024 RMK A01 T02600103  RH  037%=      5-min Rain = 0
KWE2 111642Z 18003KT 26/10 A3024 RMK A01 T02590100  RH  037%=      5-min Rain = 0
KWE2 111643Z 21003KT 26/10 A3024 RMK A01 T02590101  RH  037%=      5-min Rain = 0
KWE2 111644Z 22003KT 26/10 A3024 RMK A01 T02570099  RH  037%=      5-min Rain = 0
KWE2 111645Z 19001KT 25/10 A3024 RMK A01 T02540099  RH  037%=      5-min Rain = 0
KWE2 111646Z 21000KT 26/10 A3024 RMK A01 T02550098  RH  037%=      5-min Rain = 0
KWE2 111647Z 20003KT 26/10 A3024 RMK A01 T02570100  RH  037%=      5-min Rain = 0
KWE2 111648Z 20003KT 26/10 A3024 RMK A01 T02580103  RH  038%=      5-min Rain = 0
KWE2 111649Z 19001KT 26/11 A3024 RMK A01 T02590105  RH  038%=      5-min Rain = 0
KWE2 111650Z 21002KT 26/10 A3024 RMK A01 T02610103  RH  037%=      5-min Rain = 0
KWE2 111651Z 20002KT 26/10 A3024 RMK A01 T02610103  RH  037%=      5-min Rain = 0
KWE2 111652Z 18003KT 26/10 A3024 RMK A01 T02600102  RH  037%=      5-min Rain = 0
KWE2 111653Z 20004KT 26/10 A3024 RMK A01 T02600102  RH  037%=      5-min Rain = 0
KWE2 111654Z 20002KT 26/10 A3024 RMK A01 T02570101  RH  037%=      5-min Rain = 0
KWE2 111655Z 19003KT 26/10 A3024 RMK A01 T02560102  RH  038%=      5-min Rain = 0
KWE2 111656Z 22001KT 26/10 A3024 RMK A01 T02560102  RH  038%=      5-min Rain = 0
KWE2 111657Z 11002KT 26/10 A3024 RMK A01 T02570101  RH  037%=      5-min Rain = 0
KWE2 111658Z 09001KT 26/10 A3024 RMK A01 T02590101  RH  037%=      5-min Rain = 0
KWE2 111659Z 14002KT 26/10 A3024 RMK A01 T02610102  RH  037%=      5-min Rain = 0
KWE2 111700Z 13003KT 26/10 A3024 RMK A01 T02640103  RH  036%=      5-min Rain = 0
KWE2 111701Z 17003KT 26/10 A3024 RMK A01 T02640104  RH  037%=      5-min Rain = 0
KWE2 111702Z 18002KT 26/10 A3024 RMK A01 T02640103  RH  036%=      5-min Rain = 0
KWE2 111703Z 25002KT 26/10 A3024 RMK A01 T02630101  RH  036%=      5-min Rain = 0
KWE2 111704Z 20001KT 26/10 A3024 RMK A01 T02620102  RH  037%=      5-min Rain = 0
KWE2 111705Z 12002KT 26/10 A3024 RMK A01 T02610102  RH  037%=      5-min Rain = 0
KWE2 111706Z 12002KT 26/10 A3024 RMK A01 T02620102  RH  037%=      5-min Rain = 0
KWE2 111707Z 13004KT 26/10 A3024 RMK A01 T02630102  RH  036%=      5-min Rain = 0
KWE2 111708Z 14004KT 26/10 A3024 RMK A01 T02640103  RH  036%=      5-min Rain = 0
KWE2 111709Z 14003KT 27/10 A3024 RMK A01 T02660103  RH  036%=      5-min Rain = 0
KWE2 111710Z 12003KT 27/10 A3024 RMK A01 T02670102  RH  036%=      5-min Rain = 0
KWE2 111711Z 12003KT 27/10 A3024 RMK A01 T02660101  RH  035%=      5-min Rain = 0
KWE2 111712Z 09001KT 27/10 A3024 RMK A01 T02670101  RH  035%=      5-min Rain = 0
KWE2 111713Z 10000KT 27/10 A3024 RMK A01 T02670100  RH  035%=      5-min Rain = 0
KWE2 111714Z 11001KT 27/10 A3024 RMK A01 T02690102  RH  035%=      5-min Rain = 0
KWE2 111715Z 01001KT 27/10 A3024 RMK A01 T02700102  RH  035%=      5-min Rain = 0
KWE2 111716Z 02001KT 27/10 A3024 RMK A01 T02710101  RH  034%=      5-min Rain = 0
KWE2 111717Z 19001KT 27/10 A3024 RMK A01 T02720101  RH  034%=      5-min Rain = 0
KWE2 111718Z 22002KT 27/11 A3024 RMK A01 T02740106  RH  035%=      5-min Rain = 0
KWE2 111719Z 25002KT 28/10 A3024 RMK A01 T02750103  RH  034%=      5-min Rain = 0
KWE2 111720Z 20002KT 27/11 A3024 RMK A01 T02720105  RH  035%=      5-min Rain = 0
KWE2 111721Z 21002KT 27/10 A3024 RMK A01 T02710104  RH  035%=      5-min Rain = 0
KWE2 111722Z 24003KT 27/11 A3024 RMK A01 T02700105  RH  035%=      5-min Rain = 0
KWE2 111723Z 26004KT 27/10 A3024 RMK A01 T02700102  RH  035%=      5-min Rain = 0
KWE2 111724Z 25003KT 27/10 A3024 RMK A01 T02680102  RH  035%=      5-min Rain = 0
KWE2 111725Z 26004KT 27/10 A3024 RMK A01 T02660101  RH  036%=      5-min Rain = 0
KWE2 111726Z 25003KT 27/10 A3024 RMK A01 T02650101  RH  036%=      5-min Rain = 0
KWE2 111727Z 25003KT 26/10 A3024 RMK A01 T02640101  RH  036%=      5-min Rain = 0
KWE2 111728Z 24001KT 26/10 A3024 RMK A01 T02640101  RH  036%=      5-min Rain = 0
KWE2 111729Z 19002KT 27/10 A3024 RMK A01 T02650103  RH  036%=      5-min Rain = 0
KWE2 111730Z 17003KT 27/11 A3024 RMK A01 T02680105  RH  036%=      5-min Rain = 0
KWE2 111731Z 18003KT 27/10 A3024 RMK A01 T02700103  RH  035%=      5-min Rain = 0
KWE2 111732Z 20002KT 27/10 A3024 RMK A01 T02700103  RH  035%=      5-min Rain = 0
KWE2 111733Z 18003KT 27/10 A3024 RMK A01 T02700104  RH  035%=      5-min Rain = 0
KWE2 111734Z 19003KT 27/10 A3024 RMK A01 T02700104  RH  035%=      5-min Rain = 0
KWE2 111735Z 19003KT 27/11 A3024 RMK A01 T02710105  RH  035%=      5-min Rain = 0
KWE2 111736Z 18002KT 27/10 A3024 RMK A01 T02730102  RH  034%=      5-min Rain = 0
KWE2 111737Z 19002KT 27/10 A3024 RMK A01 T02730104  RH  035%=      5-min Rain = 0
KWE2 111738Z 22001KT 27/10 A3024 RMK A01 T02720103  RH  035%=      5-min Rain = 0
KWE2 111739Z 18002KT 27/11 A3024 RMK A01 T02730105  RH  035%=      5-min Rain = 0
KWE2 111740Z 18002KT 27/10 A3024 RMK A01 T02740103  RH  034%=      5-min Rain = 0
KWE2 111741Z 21000KT 27/10 A3024 RMK A01 T02740104  RH  034%=      5-min Rain = 0
KWE2 111742Z 30003KT 28/10 A3023 RMK A01 T02760102  RH  034%=      5-min Rain = 0
KWE2 111743Z 29003KT 28/10 A3023 RMK A01 T02750101  RH  034%=      5-min Rain = 0
KWE2 111744Z 28005KT 27/10 A3023 RMK A01 T02740103  RH  034%=      5-min Rain = 0
KWE2 111745Z 27005KT 27/10 A3023 RMK A01 T02740102  RH  034%=      5-min Rain = 0
KWE2 111746Z 28003KT 27/10 A3023 RMK A01 T02730101  RH  034%=      5-min Rain = 0
KWE2 111747Z 28004KT 27/10 A3023 RMK A01 T02720100  RH  034%=      5-min Rain = 0
KWE2 111748Z 26005KT 27/10 A3023 RMK A01 T02710101  RH  034%=      5-min Rain = 0
KWE2 111749Z 26002KT 27/10 A3023 RMK A01 T02700101  RH  035%=      5-min Rain = 0
KWE2 111750Z 26002KT 27/10 A3023 RMK A01 T02690100  RH  035%=      5-min Rain = 0
KWE2 111751Z 26002KT 27/10 A3023 RMK A01 T02690102  RH  035%=      5-min Rain = 0
KWE2 111752Z 27005KT 27/10 A3023 RMK A01 T02710102  RH  035%=      5-min Rain = 0
KWE2 111753Z 28004KT 27/10 A3023 RMK A01 T02720101  RH  034%=      5-min Rain = 0
KWE2 111754Z 28003KT 27/10 A3023 RMK A01 T02700101  RH  035%=      5-min Rain = 0
KWE2 111755Z 29002KT 27/10 A3023 RMK A01 T02690101  RH  035%=      5-min Rain = 0
KWE2 111756Z 32002KT 27/10 A3023 RMK A01 T02690101  RH  035%=      5-min Rain = 0
KWE2 111757Z 34003KT 27/10 A3023 RMK A01 T02710104  RH  035%=      5-min Rain = 0
KWE2 111758Z 35002KT 27/10 A3023 RMK A01 T02740104  RH  035%=      5-min Rain = 0
KWE2 111759Z 31001KT 28/10 A3023 RMK A01 T02750103  RH  034%=      5-min Rain = 0
KWE2 111800Z 03003KT 28/10 A3023 RMK A01 T02760104  RH  034%=      5-min Rain = 0
KWE2 111801Z 35003KT 28/10 A3023 RMK A01 T02770104  RH  034%=      5-min Rain = 0
KWE2 111802Z 05002KT 28/10 A3023 RMK A01 T02770103  RH  034%=      5-min Rain = 0
KWE2 111803Z 02005KT 28/10 A3023 RMK A01 T02770102  RH  033%=      5-min Rain = 0
KWE2 111804Z 01006KT 28/10 A3023 RMK A01 T02770102  RH  034%=      5-min Rain = 0
KWE2 111805Z 01008KT 28/10 A3023 RMK A01 T02790103  RH  033%=      5-min Rain = 0
KWE2 111806Z 02005KT 28/10 A3023 RMK A01 T02760100  RH  033%=      5-min Rain = 0
KWE2 111807Z 01004KT 27/10 A3023 RMK A01 T02740100  RH  034%=      5-min Rain = 0
KWE2 111808Z 03005KT 27/10 A3023 RMK A01 T02730102  RH  034%=      5-min Rain = 0
KWE2 111809Z 04003KT 27/10 A3023 RMK A01 T02730101  RH  034%=      5-min Rain = 0
KWE2 111810Z 02004KT 27/10 A3023 RMK A01 T02730102  RH  034%=      5-min Rain = 0
KWE2 111811Z 05007KT 28/10 A3022 RMK A01 T02760104  RH  034%=      5-min Rain = 0
KWE2 111812Z 06007KT 28/10 A3022 RMK A01 T02770103  RH  034%=      5-min Rain = 0
KWE2 111813Z 09005KT 28/10 A3022 RMK A01 T02760102  RH  034%=      5-min Rain = 0
KWE2 111814Z 11006KT 28/10 A3022 RMK A01 T02750102  RH  034%=      5-min Rain = 0
KWE2 111815Z 05006KT 27/10 A3022 RMK A01 T02740103  RH  034%=      5-min Rain = 0
KWE2 111816Z 04005KT 28/10 A3022 RMK A01 T02750101  RH  034%=      5-min Rain = 0
KWE2 111817Z 06003KT 27/10 A3022 RMK A01 T02730101  RH  034%=      5-min Rain = 0
KWE2 111818Z 15002KT 27/10 A3022 RMK A01 T02730101  RH  034%=      5-min Rain = 0
KWE2 111819Z 10002KT 27/10 A3022 RMK A01 T02730103  RH  035%=      5-min Rain = 0
KWE2 111820Z 06002KT 28/10 A3022 RMK A01 T02770104  RH  034%=      5-min Rain = 0
KWE2 111821Z 09005KT 28/10 A3022 RMK A01 T02790104  RH  034%=      5-min Rain = 0
KWE2 111822Z 12003KT 28/10 A3022 RMK A01 T02780103  RH  033%=      5-min Rain = 0
KWE2 111823Z 10003KT 28/10 A3022 RMK A01 T02750103  RH  034%=      5-min Rain = 0
KWE2 111824Z 10003KT 28/10 A3022 RMK A01 T02770104  RH  034%=      5-min Rain = 0
KWE2 111825Z 08004KT 28/10 A3022 RMK A01 T02790103  RH  033%=      5-min Rain = 0
KWE2 111826Z 08003KT 28/10 A3022 RMK A01 T02780103  RH  034%=      5-min Rain = 0
KWE2 111827Z 08003KT 28/10 A3022 RMK A01 T02770103  RH  034%=      5-min Rain = 0
KWE2 111828Z 12004KT 28/10 A3022 RMK A01 T02780104  RH  034%=      5-min Rain = 0
KWE2 111829Z 14003KT 28/11 A3022 RMK A01 T02790105  RH  034%=      5-min Rain = 0
KWE2 111830Z 13002KT 28/11 A3022 RMK A01 T02800105  RH  034%=      5-min Rain = 0
KWE2 111831Z 17001KT 28/11 A3022 RMK A01 T02800105  RH  034%=      5-min Rain = 0
KWE2 111832Z 21001KT 28/11 A3022 RMK A01 T02800105  RH  033%=      5-min Rain = 0
KWE2 111833Z 24000KT 28/11 A3022 RMK A01 T02810105  RH  033%=      5-min Rain = 0
KWE2 111834Z 01002KT 28/11 A3022 RMK A01 T02820105  RH  033%=      5-min Rain = 0
KWE2 111835Z 35004KT 28/10 A3022 RMK A01 T02830102  RH  032%=      5-min Rain = 0
KWE2 111836Z 04005KT 28/10 A3022 RMK A01 T02820100  RH  032%=      5-min Rain = 0
KWE2 111837Z 05007KT 28/10 A3022 RMK A01 T02820101  RH  032%=      5-min Rain = 0
KWE2 111838Z 05005KT 28/10 A3022 RMK A01 T02820101  RH  032%=      5-min Rain = 0
KWE2 111839Z 06004KT 28/10 A3022 RMK A01 T02800099  RH  032%=      5-min Rain = 0
KWE2 111840Z 08003KT 28/10 A3022 RMK A01 T02790097  RH  032%=      5-min Rain = 0
KWE2 111841Z 03004KT 28/10 A3022 RMK A01 T02780099  RH  033%=      5-min Rain = 0
KWE2 111842Z 01004KT 28/10 A3022 RMK A01 T02780099  RH  033%=      5-min Rain = 0
KWE2 111843Z 02005KT 28/10 A3021 RMK A01 T02790099  RH  032%=      5-min Rain = 0
KWE2 111844Z 04003KT 28/10 A3021 RMK A01 T02800099  RH  032%=      5-min Rain = 0
KWE2 111845Z 02004KT 28/10 A3022 RMK A01 T02800099  RH  032%=      5-min Rain = 0
KWE2 111846Z 02002KT 28/10 A3021 RMK A01 T02810099  RH  032%=      5-min Rain = 0
KWE2 111847Z 26001KT 28/10 A3021 RMK A01 T02820100  RH  032%=      5-min Rain = 0
KWE2 111848Z 18000KT 28/10 A3021 RMK A01 T02840101  RH  032%=      5-min Rain = 0
KWE2 111849Z 05003KT 29/10 A3021 RMK A01 T02870102  RH  032%=      5-min Rain = 0
KWE2 111850Z 05006KT 29/10 A3021 RMK A01 T02880101  RH  031%=      5-min Rain = 0
KWE2 111851Z 03005KT 29/10 A3021 RMK A01 T02850100  RH  031%=      5-min Rain = 0
KWE2 111852Z 03002KT 28/10 A3021 RMK A01 T02820100  RH  032%=      5-min Rain = 0
KWE2 111853Z 04008KT 28/10 A3021 RMK A01 T02810102  RH  033%=      5-min Rain = 0
KWE2 111854Z 03008KT 28/10 A3021 RMK A01 T02830102  RH  032%=      5-min Rain = 0
KWE2 111855Z 03006KT 28/10 A3021 RMK A01 T02840101  RH  032%=      5-min Rain = 0
KWE2 111856Z 05005KT 28/10 A3021 RMK A01 T02830102  RH  032%=      5-min Rain = 0
KWE2 111857Z 07002KT 28/10 A3021 RMK A01 T02830101  RH  032%=      5-min Rain = 0
KWE2 111858Z 13002KT 28/10 A3021 RMK A01 T02830100  RH  032%=      5-min Rain = 0
KWE2 111859Z 03002KT 28/10 A3021 RMK A01 T02830101  RH  032%=      5-min Rain = 0
KWE2 111900Z 03003KT 28/10 A3021 RMK A01 T02840100  RH  032%=      5-min Rain = 0
KWE2 111901Z 09006KT 28/10 A3021 RMK A01 T02840102  RH  032%=      5-min Rain = 0
KWE2 111902Z 09007KT 29/10 A3021 RMK A01 T02890103  RH  031%=      5-min Rain = 0
KWE2 111903Z 10006KT 29/10 A3021 RMK A01 T02890102  RH  031%=      5-min Rain = 0
KWE2 111904Z 10006KT 29/10 A3021 RMK A01 T02860102  RH  032%=      5-min Rain = 0
KWE2 111905Z 12004KT 28/10 A3021 RMK A01 T02820100  RH  032%=      5-min Rain = 0
KWE2 111906Z 12005KT 28/10 A3021 RMK A01 T02810101  RH  032%=      5-min Rain = 0
KWE2 111907Z 13005KT 28/10 A3021 RMK A01 T02820101  RH  032%=      5-min Rain = 0
KWE2 111908Z 15004KT 28/10 A302 RMK A01 T02830100  RH  032%=      5-min Rain = 0
KWE2 111909Z 14006KT 29/10 A302 RMK A01 T02850103  RH  032%=      5-min Rain = 0
KWE2 111910Z 13005KT 29/10 A3021 RMK A01 T02850101  RH  032%=      5-min Rain = 0
KWE2 111911Z 11003KT 29/10 A3021 RMK A01 T02850100  RH  032%=      5-min Rain = 0
KWE2 111912Z 11002KT 28/10 A3021 RMK A01 T02840100  RH  032%=      5-min Rain = 0
KWE2 111913Z 12002KT 28/10 A302 RMK A01 T02830101  RH  032%=      5-min Rain = 0
KWE2 111914Z 10000KT 28/10 A302 RMK A01 T02840100  RH  032%=      5-min Rain = 0
KWE2 111915Z 15001KT 29/10 A302 RMK A01 T02850100  RH  032%=      5-min Rain = 0
KWE2 111916Z 15006KT 29/10 A302 RMK A01 T02870102  RH  032%=      5-min Rain = 0
KWE2 111917Z 15003KT 29/10 A302 RMK A01 T02870102  RH  032%=      5-min Rain = 0
KWE2 111918Z 12005KT 29/10 A302 RMK A01 T02860104  RH  032%=      5-min Rain = 0
KWE2 111919Z 11006KT 29/10 A302 RMK A01 T02890104  RH  032%=      5-min Rain = 0
KWE2 111920Z 12005KT 29/10 A302 RMK A01 T02890104  RH  031%=      5-min Rain = 0
KWE2 111921Z 12006KT 29/11 A302 RMK A01 T02900105  RH  032%=      5-min Rain = 0
KWE2 111922Z 13006KT 29/11 A302 RMK A01 T02920105  RH  031%=      5-min Rain = 0
KWE2 111923Z 12004KT 29/10 A302 RMK A01 T02910104  RH  031%=      5-min Rain = 0
KWE2 111924Z 12004KT 29/10 A302 RMK A01 T02910103  RH  031%=      5-min Rain = 0
KWE2 111925Z 13003KT 29/10 A302 RMK A01 T02890101  RH  031%=      5-min Rain = 0
KWE2 111926Z 13001KT 29/10 A302 RMK A01 T02870102  RH  031%=      5-min Rain = 0
KWE2 111927Z 14002KT 29/10 A302 RMK A01 T02870101  RH  031%=      5-min Rain = 0
KWE2 111928Z 17003KT 29/10 A302 RMK A01 T02880102  RH  031%=      5-min Rain = 0
KWE2 111929Z 17004KT 29/11 A3019 RMK A01 T02890107  RH  032%=      5-min Rain = 0
KWE2 111930Z 15003KT 29/11 A3019 RMK A01 T02920105  RH  031%=      5-min Rain = 0
KWE2 111931Z 19003KT 29/11 A3019 RMK A01 T02940106  RH  031%=      5-min Rain = 0
KWE2 111932Z 22003KT 29/10 A3019 RMK A01 T02940103  RH  031%=      5-min Rain = 0
KWE2 111933Z 20004KT 29/10 A3019 RMK A01 T02910104  RH  031%=      5-min Rain = 0
KWE2 111934Z 21004KT 29/10 A3019 RMK A01 T02900104  RH  031%=      5-min Rain = 0
KWE2 111935Z 21005KT 29/10 A3019 RMK A01 T02900104  RH  031%=      5-min Rain = 0
KWE2 111936Z 23004KT 29/10 A3019 RMK A01 T02900104  RH  032%=      5-min Rain = 0
KWE2 111937Z 25003KT 29/10 A3019 RMK A01 T02890104  RH  032%=      5-min Rain = 0
KWE2 111938Z 27005KT 29/10 A3019 RMK A01 T02890104  RH  032%=      5-min Rain = 0
KWE2 111939Z 28003KT 29/10 A3019 RMK A01 T02890104  RH  031%=      5-min Rain = 0
KWE2 111940Z 27003KT 29/10 A3019 RMK A01 T02890104  RH  031%=      5-min Rain = 0
KWE2 111941Z 29002KT 29/10 A3019 RMK A01 T02900103  RH  031%=      5-min Rain = 0
KWE2 111942Z 27002KT 29/10 A3019 RMK A01 T02890103  RH  031%=      5-min Rain = 0
KWE2 111943Z 02002KT 29/10 A3019 RMK A01 T02890103  RH  031%=      5-min Rain = 0
KWE2 111944Z 07002KT 29/10 A3019 RMK A01 T02890102  RH  031%=      5-min Rain = 0
KWE2 111945Z 06002KT 29/10 A3019 RMK A01 T02890104  RH  031%=      5-min Rain = 0
KWE2 111946Z 09003KT 29/10 A3019 RMK A01 T02930104  RH  031%=      5-min Rain = 0
KWE2 111947Z 10005KT 30/10 A3019 RMK A01 T02960099  RH  029%=      5-min Rain = 0
KWE2 111948Z 12004KT 30/10 A3019 RMK A01 T02950099  RH  030%=      5-min Rain = 0
KWE2 111949Z 08003KT 30/10 A3019 RMK A01 T02960098  RH  029%=      5-min Rain = 0
KWE2 111950Z 06004KT 30/10 A3018 RMK A01 T02970098  RH  029%=      5-min Rain = 0
KWE2 111951Z 05004KT 30/10 A3018 RMK A01 T02950098  RH  029%=      5-min Rain = 0
KWE2 111952Z 08001KT 29/10 A3018 RMK A01 T02910097  RH  030%=      5-min Rain = 0
KWE2 111953Z 31002KT 29/10 A3018 RMK A01 T02890098  RH  030%=      5-min Rain = 0
KWE2 111954Z 28001KT 29/10 A3018 RMK A01 T02910100  RH  030%=      5-min Rain = 0
KWE2 111955Z 16004KT 29/10 A3018 RMK A01 T02940103  RH  030%=      5-min Rain = 0
KWE2 111956Z 15004KT 30/10 A3018 RMK A01 T02970101  RH  030%=      5-min Rain = 0
KWE2 111957Z 09005KT 30/10 A3018 RMK A01 T02980101  RH  029%=      5-min Rain = 0
KWE2 111958Z 10005KT 30/10 A3018 RMK A01 T02980099  RH  029%=      5-min Rain = 0
KWE2 111959Z 10004KT 30/10 A3018 RMK A01 T02970099  RH  029%=      5-min Rain = 0
KWE2 112000Z 10005KT 30/10 A3018 RMK A01 T02970099  RH  029%=      5-min Rain = 0
KWE2 112001Z 08004KT 30/10 A3018 RMK A01 T02960098  RH  029%=      5-min Rain = 0
KWE2 112002Z 05003KT 29/10 A3018 RMK A01 T02940098  RH  029%=      5-min Rain = 0
KWE2 112003Z 04002KT 29/10 A3018 RMK A01 T02930098  RH  030%=      5-min Rain = 0
KWE2 112004Z 09000KT 29/10 A3018 RMK A01 T02920097  RH  030%=      5-min Rain = 0
KWE2 112005Z 01000KT 29/10 A3018 RMK A01 T02940099  RH  030%=      5-min Rain = 0
KWE2 112006Z 03005KT 30/10 A3018 RMK A01 T02990100  RH  029%=      5-min Rain = 0
KWE2 112007Z 05010KT 30/10 A3017 RMK A01 T03020096  RH  028%=      5-min Rain = 0
KWE2 112008Z 05009KT 30/09 A3018 RMK A01 T03040093  RH  027%=      5-min Rain = 0
KWE2 112009Z 05007KT 31/10 A3017 RMK A01 T03070095  RH  027%=      5-min Rain = 0
KWE2 112010Z 05005KT 31/09 A3017 RMK A01 T03090093  RH  026%=      5-min Rain = 0
KWE2 112011Z 05004KT 30/09 A3017 RMK A01 T03030091  RH  027%=      5-min Rain = 0
KWE2 112012Z 03004KT 30/09 A3017 RMK A01 T03000092  RH  027%=      5-min Rain = 0
KWE2 112013Z 01004KT 30/09 A3017 RMK A01 T02990092  RH  027%=      5-min Rain = 0
KWE2 112014Z 01001KT 30/09 A3017 RMK A01 T02990092  RH  028%=      5-min Rain = 0
KWE2 112015Z 06005KT 30/09 A3017 RMK A01 T02980092  RH  028%=      5-min Rain = 0
KWE2 112016Z 08006KT 30/09 A3017 RMK A01 T02980092  RH  028%=      5-min Rain = 0
KWE2 112017Z 07005KT 30/09 A3017 RMK A01 T02990090  RH  027%=      5-min Rain = 0
KWE2 112018Z 04005KT 30/09 A3017 RMK A01 T03030094  RH  027%=      5-min Rain = 0
KWE2 112019Z 01006KT 31/09 A3017 RMK A01 T03060094  RH  027%=      5-min Rain = 0
KWE2 112020Z 04006KT 30/09 A3017 RMK A01 T03040092  RH  027%=      5-min Rain = 0
KWE2 112021Z 01005KT 30/09 A3017 RMK A01 T03030093  RH  027%=      5-min Rain = 0
KWE2 112022Z 36005KT 30/09 A3017 RMK A01 T03040094  RH  027%=      5-min Rain = 0
KWE2 112023Z 01005KT 30/09 A3017 RMK A01 T03020093  RH  027%=      5-min Rain = 0
KWE2 112024Z 03003KT 30/09 A3017 RMK A01 T03010091  RH  027%=      5-min Rain = 0
KWE2 112025Z 03006KT 30/09 A3016 RMK A01 T03000093  RH  028%=      5-min Rain = 0
KWE2 112026Z 04003KT 30/09 A3016 RMK A01 T02960092  RH  028%=      5-min Rain = 0
KWE2 112027Z 03002KT 29/09 A3016 RMK A01 T02940093  RH  029%=      5-min Rain = 0
KWE2 112028Z 03003KT 29/09 A3016 RMK A01 T02940092  RH  028%=      5-min Rain = 0
KWE2 112029Z 35004KT 30/10 A3016 RMK A01 T02960095  RH  029%=      5-min Rain = 0
KWE2 112030Z 32002KT 30/10 A3016 RMK A01 T02970096  RH  029%=      5-min Rain = 0
KWE2 112031Z 24001KT 30/10 A3016 RMK A01 T02980096  RH  028%=      5-min Rain = 0
KWE2 112032Z 22002KT 30/10 A3016 RMK A01 T02990096  RH  028%=      5-min Rain = 0
KWE2 112033Z 19001KT 30/10 A3016 RMK A01 T02990096  RH  028%=      5-min Rain = 0
KWE2 112034Z 26001KT 30/10 A3016 RMK A01 T03000099  RH  029%=      5-min Rain = 0
KWE2 112035Z 30002KT 30/10 A3016 RMK A01 T03040098  RH  028%=      5-min Rain = 0
KWE2 112036Z 25000KT 31/10 A3016 RMK A01 T03060098  RH  028%=      5-min Rain = 0
KWE2 112037Z 04003KT 31/10 A3016 RMK A01 T03070098  RH  027%=      5-min Rain = 0
KWE2 112038Z 05007KT 31/10 A3016 RMK A01 T03070099  RH  028%=      5-min Rain = 0
KWE2 112039Z 05006KT 31/10 A3016 RMK A01 T03050098  RH  028%=      5-min Rain = 0
KWE2 112040Z 03003KT 30/10 A3016 RMK A01 T03020096  RH  028%=      5-min Rain = 0
KWE2 112041Z 03000KT 30/10 A3016 RMK A01 T02990095  RH  028%=      5-min Rain = 0
KWE2 112042Z 08001KT 30/10 A3016 RMK A01 T03000096  RH  028%=      5-min Rain = 0
KWE2 112043Z 10006KT 30/09 A3016 RMK A01 T03020094  RH  027%=      5-min Rain = 0
KWE2 112044Z 10007KT 30/09 A3016 RMK A01 T03040094  RH  027%=      5-min Rain = 0
KWE2 112045Z 09006KT 30/09 A3016 RMK A01 T03040094  RH  027%=      5-min Rain = 0
KWE2 112046Z 10006KT 30/10 A3016 RMK A01 T03040095  RH  027%=      5-min Rain = 0
KWE2 112047Z 11006KT 31/10 A3015 RMK A01 T03050095  RH  027%=      5-min Rain = 0
KWE2 112048Z 10006KT 31/09 A3015 RMK A01 T03050093  RH  027%=      5-min Rain = 0
KWE2 112049Z 07005KT 30/09 A3015 RMK A01 T03030093  RH  027%=      5-min Rain = 0
KWE2 112050Z 05004KT 30/09 A3015 RMK A01 T02990092  RH  028%=      5-min Rain = 0
KWE2 112051Z 01002KT 30/09 A3015 RMK A01 T02970093  RH  028%=      5-min Rain = 0
KWE2 112052Z 35001KT 30/09 A3015 RMK A01 T02970092  RH  028%=      5-min Rain = 0
KWE2 112053Z 01000KT 30/09 A3015 RMK A01 T02970092  RH  028%=      5-min Rain = 0
KWE2 112054Z 17001KT 30/09 A3015 RMK A01 T02990094  RH  028%=      5-min Rain = 0
KWE2 112055Z 16003KT 30/10 A3015 RMK A01 T03030095  RH  028%=      5-min Rain = 0
KWE2 112056Z 15004KT 30/10 A3015 RMK A01 T03040097  RH  028%=      5-min Rain = 0
KWE2 112057Z 15005KT 31/10 A3015 RMK A01 T03050098  RH  028%=      5-min Rain = 0
KWE2 112058Z 16004KT 31/10 A3015 RMK A01 T03060096  RH  027%=      5-min Rain = 0
KWE2 112059Z 19002KT 30/09 A3015 RMK A01 T03040094  RH  027%=      5-min Rain = 0
KWE2 112100Z 16002G7KT 30/10 A3015 RMK A01 T03020096  RH  028%=      5-min Rain = 0
KWE2 112101Z 14005KT 30/10 A3015 RMK A01 T03030097  RH  028%=      5-min Rain = 0
KWE2 112102Z 16003KT 30/10 A3015 RMK A01 T03040095  RH  027%=      5-min Rain = 0
KWE2 112103Z 20002KT 30/10 A3015 RMK A01 T03030095  RH  028%=      5-min Rain = 0
KWE2 112104Z 17001KT 30/10 A3015 RMK A01 T03020098  RH  028%=      5-min Rain = 0
KWE2 112105Z 08003KT 30/10 A3015 RMK A01 T03030097  RH  028%=      5-min Rain = 0
KWE2 112106Z 06003KT 31/10 A3015 RMK A01 T03050096  RH  027%=      5-min Rain = 0
KWE2 112107Z 09004KT 31/10 A3015 RMK A01 T03050096  RH  027%=      5-min Rain = 0
KWE2 112108Z 12005KT 31/10 A3015 RMK A01 T03050099  RH  028%=      5-min Rain = 0
KWE2 112109Z 13007KT 31/10 A3015 RMK A01 T03060102  RH  028%=      5-min Rain = 0
KWE2 112110Z 13008KT 31/10 A3015 RMK A01 T03080103  RH  028%=      5-min Rain = 0
KWE2 112111Z 13007KT 31/10 A3015 RMK A01 T03080103  RH  028%=      5-min Rain = 0
KWE2 112112Z 13004KT 31/10 A3015 RMK A01 T03100100  RH  027%=      5-min Rain = 0
KWE2 112113Z 14003KT 31/10 A3014 RMK A01 T03090102  RH  028%=      5-min Rain = 0
KWE2 112114Z 17003KT 31/10 A3014 RMK A01 T03090100  RH  027%=      5-min Rain = 0
KWE2 112115Z 14006KT 31/11 A3014 RMK A01 T03080105  RH  029%=      5-min Rain = 0
KWE2 112116Z 14005KT 31/11 A3014 RMK A01 T03080108  RH  029%=      5-min Rain = 0
KWE2 112117Z 14005KT 31/11 A3014 RMK A01 T03110105  RH  028%=      5-min Rain = 0
KWE2 112118Z 12003KT 31/10 A3014 RMK A01 T03110102  RH  028%=      5-min Rain = 0
KWE2 112119Z 13001KT 31/10 A3014 RMK A01 T03090100  RH  027%=      5-min Rain = 0
KWE2 112120Z 10001KT 31/10 A3014 RMK A01 T03080100  RH  027%=      5-min Rain = 0
KWE2 112121Z 12002G7KT 31/10 A3014 RMK A01 T03080101  RH  028%=      5-min Rain = 0
KWE2 112122Z 10003KT 31/10 A3014 RMK A01 T03100100  RH  027%=      5-min Rain = 0
KWE2 112123Z 08006KT 31/10 A3014 RMK A01 T03130100  RH  027%=      5-min Rain = 0
KWE2 112124Z 08006KT 31/10 A3014 RMK A01 T03120096  RH  026%=      5-min Rain = 0
KWE2 112125Z 06006KT 31/09 A3014 RMK A01 T03080094  RH  027%=      5-min Rain = 0
KWE2 112126Z 04005KT 31/09 A3014 RMK A01 T03060094  RH  027%=      5-min Rain = 0
KWE2 112127Z 05004KT 30/09 A3014 RMK A01 T03040094  RH  027%=      5-min Rain = 0
KWE2 112128Z 06005KT 30/09 A3014 RMK A01 T03040094  RH  027%=      5-min Rain = 0
KWE2 112129Z 06004KT 31/09 A3014 RMK A01 T03050093  RH  027%=      5-min Rain = 0
KWE2 112130Z 07004KT 30/10 A3014 RMK A01 T03040095  RH  027%=      5-min Rain = 0
KWE2 112131Z 04004KT 30/10 A3014 RMK A01 T03030100  RH  028%=      5-min Rain = 0
KWE2 112132Z 03003KT 30/10 A3014 RMK A01 T03020099  RH  028%=      5-min Rain = 0
KWE2 112133Z 01005KT 30/10 A3014 RMK A01 T03020098  RH  028%=      5-min Rain = 0
KWE2 112134Z 02005KT 31/10 A3014 RMK A01 T03060100  RH  028%=      5-min Rain = 0
KWE2 112135Z 01006KT 31/10 A3014 RMK A01 T03060098  RH  027%=      5-min Rain = 0
KWE2 112136Z 02005KT 31/10 A3013 RMK A01 T03070097  RH  027%=      5-min Rain = 0
KWE2 112137Z 02005KT 31/10 A3013 RMK A01 T03070096  RH  027%=      5-min Rain = 0
KWE2 112138Z 06003KT 31/10 A3013 RMK A01 T03060095  RH  027%=      5-min Rain = 0
KWE2 112139Z 07004KT 31/10 A3013 RMK A01 T03050097  RH  027%=      5-min Rain = 0
KWE2 112140Z 08004KT 31/10 A3013 RMK A01 T03060097  RH  027%=      5-min Rain = 0
KWE2 112141Z 06005KT 31/10 A3013 RMK A01 T03070098  RH  027%=      5-min Rain = 0
KWE2 112142Z 07005KT 31/10 A3013 RMK A01 T03070098  RH  027%=      5-min Rain = 0
KWE2 112143Z 06006KT 31/10 A3013 RMK A01 T03070098  RH  028%=      5-min Rain = 0
KWE2 112144Z 07005KT 31/10 A3013 RMK A01 T03070098  RH  027%=      5-min Rain = 0
KWE2 112145Z 08005KT 31/10 A3013 RMK A01 T03070098  RH  027%=      5-min Rain = 0
KWE2 112146Z 11001KT 31/10 A3013 RMK A01 T03060097  RH  027%=      5-min Rain = 0
KWE2 112147Z 29001KT 31/10 A3013 RMK A01 T03060097  RH  027%=      5-min Rain = 0
KWE2 112148Z 28001KT 31/10 A3013 RMK A01 T03050098  RH  028%=      5-min Rain = 0
KWE2 112149Z 03001KT 30/10 A3013 RMK A01 T03040098  RH  028%=      5-min Rain = 0
KWE2 112150Z 08004KT 31/10 A3013 RMK A01 T03050099  RH  028%=      5-min Rain = 0
KWE2 112151Z 10006KT 31/10 A3013 RMK A01 T03070101  RH  028%=      5-min Rain = 0
KWE2 112152Z 10006KT 31/10 A3013 RMK A01 T03090101  RH  028%=      5-min Rain = 0
KWE2 112153Z 08004KT 31/10 A3013 RMK A01 T03070100  RH  028%=      5-min Rain = 0
KWE2 112154Z 06004KT 31/10 A3013 RMK A01 T03070101  RH  028%=      5-min Rain = 0
KWE2 112155Z 15003KT 31/10 A3013 RMK A01 T03080102  RH  028%=      5-min Rain = 0
KWE2 112156Z 14005KT 31/10 A3013 RMK A01 T03090101  RH  028%=      5-min Rain = 0
KWE2 112157Z 17003KT 31/10 A3013 RMK A01 T03080101  RH  028%=      5-min Rain = 0
KWE2 112158Z 16003KT 31/10 A3013 RMK A01 T03070101  RH  028%=      5-min Rain = 0
KWE2 112159Z 14006KT 31/10 A3013 RMK A01 T03060104  RH  029%=      5-min Rain = 0
KWE2 112200Z 15004KT 31/10 A3013 RMK A01 T03070103  RH  028%=      5-min Rain = 0
KWE2 112201Z 18004KT 31/10 A3013 RMK A01 T03080102  RH  028%=      5-min Rain = 0
KWE2 112202Z 20002KT 31/10 A3012 RMK A01 T03080102  RH  028%=      5-min Rain = 0
KWE2 112203Z 19003KT 31/11 A3012 RMK A01 T03060105  RH  029%=      5-min Rain = 0
KWE2 112204Z 17003KT 31/10 A3012 RMK A01 T03070102  RH  028%=      5-min Rain = 0
KWE2 112205Z 11003KT 31/10 A3012 RMK A01 T03070102  RH  028%=      5-min Rain = 0
KWE2 112206Z 09005KT 31/10 A3012 RMK A01 T03070100  RH  028%=      5-min Rain = 0
KWE2 112207Z 11003KT 30/10 A3012 RMK A01 T03040099  RH  028%=      5-min Rain = 0
KWE2 112208Z 08004KT 30/10 A3012 RMK A01 T03040100  RH  028%=      5-min Rain = 0
KWE2 112209Z 07004KT 30/10 A3012 RMK A01 T03040096  RH  027%=      5-min Rain = 0
KWE2 112210Z 06004KT 30/10 A3012 RMK A01 T03040096  RH  027%=      5-min Rain = 0
KWE2 112211Z 04005KT 31/10 A3012 RMK A01 T03050097  RH  028%=      5-min Rain = 0
KWE2 112212Z 03006KT 31/10 A3012 RMK A01 T03060097  RH  027%=      5-min Rain = 0
KWE2 112213Z 04005KT 31/10 A3012 RMK A01 T03050097  RH  027%=      5-min Rain = 0
KWE2 112214Z 03005KT 30/10 A3012 RMK A01 T03040096  RH  028%=      5-min Rain = 0
KWE2 112215Z 03005KT 30/10 A3012 RMK A01 T03040098  RH  028%=      5-min Rain = 0
KWE2 112216Z 04002KT 30/10 A3012 RMK A01 T03040097  RH  028%=      5-min Rain = 0
KWE2 112217Z 04002KT 30/10 A3012 RMK A01 T03030097  RH  028%=      5-min Rain = 0
KWE2 112218Z 35002KT 30/10 A3012 RMK A01 T03030097  RH  028%=      5-min Rain = 0
KWE2 112219Z 25001KT 30/10 A3012 RMK A01 T03030098  RH  028%=      5-min Rain = 0
KWE2 112220Z 20002KT 31/10 A3012 RMK A01 T03050097  RH  028%=      5-min Rain = 0
KWE2 112221Z 16002KT 31/10 A3012 RMK A01 T03050098  RH  028%=      5-min Rain = 0
KWE2 112222Z 14002KT 31/10 A3012 RMK A01 T03070099  RH  028%=      5-min Rain = 0
KWE2 112223Z 14003KT 31/10 A3012 RMK A01 T03080099  RH  028%=      5-min Rain = 0
KWE2 112224Z 14002KT 31/10 A3012 RMK A01 T03090100  RH  027%=      5-min Rain = 0
KWE2 112225Z 16003KT 31/10 A3012 RMK A01 T03090100  RH  028%=      5-min Rain = 0
KWE2 112226Z 18002KT 31/10 A3012 RMK A01 T03080099  RH  028%=      5-min Rain = 0
KWE2 112227Z 16002KT 31/10 A3012 RMK A01 T03080100  RH  028%=      5-min Rain = 0
KWE2 112228Z 12002KT 31/10 A3012 RMK A01 T03080100  RH  028%=      5-min Rain = 0
KWE2 112229Z 11005KT 31/10 A3012 RMK A01 T03090104  RH  028%=      5-min Rain = 0
KWE2 112230Z 09004KT 31/11 A3012 RMK A01 T03110105  RH  028%=      5-min Rain = 0
KWE2 112231Z 08004KT 31/10 A3012 RMK A01 T03100104  RH  028%=      5-min Rain = 0
KWE2 112232Z 09004KT 31/11 A3012 RMK A01 T03090105  RH  028%=      5-min Rain = 0
KWE2 112233Z 09001KT 31/10 A3012 RMK A01 T03080104  RH  028%=      5-min Rain = 0
KWE2 112234Z 33001KT 31/10 A3012 RMK A01 T03090102  RH  028%=      5-min Rain = 0
KWE2 112235Z 21001KT 31/10 A3012 RMK A01 T03100102  RH  028%=      5-min Rain = 0
KWE2 112236Z 07003KT 31/11 A3012 RMK A01 T03110106  RH  028%=      5-min Rain = 0
KWE2 112237Z 04002KT 31/10 A3012 RMK A01 T03130103  RH  027%=      5-min Rain = 0
KWE2 112238Z 12003KT 31/10 A3012 RMK A01 T03110103  RH  028%=      5-min Rain = 0
KWE2 112239Z 12003KT 31/11 A3012 RMK A01 T03100105  RH  028%=      5-min Rain = 0
KWE2 112240Z 13003KT 31/11 A3012 RMK A01 T03100106  RH  028%=      5-min Rain = 0
KWE2 112241Z 13004KT 31/11 A3012 RMK A01 T03120106  RH  028%=      5-min Rain = 0
KWE2 112242Z 13002KT 31/11 A3012 RMK A01 T03120106  RH  028%=      5-min Rain = 0
KWE2 112243Z 10002KT 31/11 A3012 RMK A01 T03120107  RH  028%=      5-min Rain = 0
KWE2 112244Z 13004KT 31/11 A3012 RMK A01 T03120108  RH  028%=      5-min Rain = 0
KWE2 112245Z 09004KT 31/11 A3012 RMK A01 T03130105  RH  028%=      5-min Rain = 0
KWE2 112246Z 02003KT 31/10 A3012 RMK A01 T03130103  RH  027%=      5-min Rain = 0
KWE2 112247Z 35002KT 31/10 A3012 RMK A01 T03100102  RH  028%=      5-min Rain = 0
KWE2 112248Z 34004KT 31/10 A3012 RMK A01 T03090103  RH  028%=      5-min Rain = 0
KWE2 112249Z 30004KT 31/10 A3012 RMK A01 T03070101  RH  028%=      5-min Rain = 0
KWE2 112250Z 30003KT 31/10 A3012 RMK A01 T03050100  RH  028%=      5-min Rain = 0
KWE2 112251Z 30003KT 30/10 A3012 RMK A01 T03040102  RH  029%=      5-min Rain = 0
KWE2 112252Z 02005KT 30/10 A3012 RMK A01 T03040104  RH  029%=      5-min Rain = 0
KWE2 112253Z 04005KT 31/11 A3012 RMK A01 T03060105  RH  029%=      5-min Rain = 0
KWE2 112254Z 03004KT 31/10 A3012 RMK A01 T03070104  RH  029%=      5-min Rain = 0
KWE2 112255Z 04003KT 31/10 A3012 RMK A01 T03060104  RH  029%=      5-min Rain = 0
KWE2 112256Z 04006KT 31/10 A3012 RMK A01 T03060104  RH  029%=      5-min Rain = 0
KWE2 112257Z 05008KT 31/10 A3012 RMK A01 T03070104  RH  029%=      5-min Rain = 0
KWE2 112258Z 05007KT 31/10 A3012 RMK A01 T03060103  RH  028%=      5-min Rain = 0
KWE2 112259Z 05007KT 31/10 A3012 RMK A01 T03060103  RH  028%=      5-min Rain = 0
KWE2 112300Z 06006KT 31/10 A3012 RMK A01 T03050103  RH  029%=      5-min Rain = 0
KWE2 112301Z 09006KT 31/10 A3012 RMK A01 T03060103  RH  028%=      5-min Rain = 0
KWE2 112302Z 10006KT 31/10 A3012 RMK A01 T03070103  RH  028%=      5-min Rain = 0
KWE2 112303Z 09005KT 31/10 A3012 RMK A01 T03050103  RH  029%=      5-min Rain = 0
KWE2 112304Z 10004KT 31/10 A3012 RMK A01 T03050104  RH  029%=      5-min Rain = 0
KWE2 112305Z 08004KT 31/10 A3012 RMK A01 T03050103  RH  029%=      5-min Rain = 0
KWE2 112306Z 08005KT 31/10 A3012 RMK A01 T03050103  RH  029%=      5-min Rain = 0
KWE2 112307Z 06006KT 30/10 A3012 RMK A01 T03040104  RH  029%=      5-min Rain = 0
KWE2 112308Z 06006KT 31/10 A3012 RMK A01 T03060103  RH  029%=      5-min Rain = 0
KWE2 112309Z 06005KT 31/10 A3012 RMK A01 T03050102  RH  028%=      5-min Rain = 0
KWE2 112310Z 08004KT 31/10 A3012 RMK A01 T03050103  RH  029%=      5-min Rain = 0
KWE2 112311Z 09003KT 30/10 A3012 RMK A01 T03040102  RH  029%=      5-min Rain = 0
KWE2 112312Z 07003KT 30/10 A3012 RMK A01 T03030101  RH  029%=      5-min Rain = 0
KWE2 112313Z 06003KT 30/10 A3012 RMK A01 T03030103  RH  029%=      5-min Rain = 0
KWE2 112314Z 04004KT 31/10 A3012 RMK A01 T03050104  RH  029%=      5-min Rain = 0
KWE2 112315Z 06004KT 31/10 A3012 RMK A01 T03060103  RH  029%=      5-min Rain = 0
KWE2 112316Z 05005KT 31/10 A3012 RMK A01 T03050103  RH  029%=      5-min Rain = 0
KWE2 112317Z 06005KT 30/10 A3012 RMK A01 T03040103  RH  029%=      5-min Rain = 0
KWE2 112318Z 06005KT 30/10 A3012 RMK A01 T03030102  RH  029%=      5-min Rain = 0
KWE2 112319Z 04003KT 30/10 A3012 RMK A01 T03010102  RH  029%=      5-min Rain = 0
KWE2 112320Z 06003KT 30/10 A3012 RMK A01 T03010102  RH  029%=      5-min Rain = 0
KWE2 112321Z 09002KT 30/10 A3012 RMK A01 T03010101  RH  029%=      5-min Rain = 0
KWE2 112322Z 10002KT 30/10 A3012 RMK A01 T03010102  RH  029%=      5-min Rain = 0
KWE2 112323Z 14001KT 30/10 A3012 RMK A01 T03020102  RH  029%=      5-min Rain = 0
KWE2 112324Z 11001KT 30/10 A3012 RMK A01 T03030103  RH  029%=      5-min Rain = 0
KWE2 112325Z 04000KT 30/10 A3012 RMK A01 T03040103  RH  029%=      5-min Rain = 0
KWE2 112326Z 04001KT 31/10 A3012 RMK A01 T03050103  RH  029%=      5-min Rain = 0
KWE2 112327Z 01002KT 31/10 A3012 RMK A01 T03050102  RH  029%=      5-min Rain = 0
KWE2 112328Z 35002KT 30/10 A3012 RMK A01 T03040103  RH  029%=      5-min Rain = 0
KWE2 112329Z 01002KT 31/10 A3012 RMK A01 T03050103  RH  029%=      5-min Rain = 0
KWE2 112330Z 03002KT 31/10 A3012 RMK A01 T03050103  RH  029%=      5-min Rain = 0
KWE2 112331Z 06003KT 31/10 A3012 RMK A01 T03050103  RH  029%=      5-min Rain = 0
KWE2 112332Z 08002KT 31/11 A3012 RMK A01 T03050105  RH  029%=      5-min Rain = 0
KWE2 112333Z 05006KT 31/11 A3012 RMK A01 T03060106  RH  029%=      5-min Rain = 0
KWE2 112334Z 07005KT 31/10 A3012 RMK A01 T03070104  RH  029%=      5-min Rain = 0
KWE2 112335Z 07005KT 31/10 A3012 RMK A01 T03070103  RH  028%=      5-min Rain = 0
KWE2 112336Z 05005KT 31/10 A3012 RMK A01 T03060103  RH  029%=      5-min Rain = 0
KWE2 112337Z 06006KT 31/10 A3012 RMK A01 T03050103  RH  029%=      5-min Rain = 0
KWE2 112338Z 04005KT 30/10 A3012 RMK A01 T03040101  RH  029%=      5-min Rain = 0
KWE2 112339Z 03004KT 30/10 A3012 RMK A01 T03030101  RH  029%=      5-min Rain = 0
KWE2 112340Z 05006KT 30/10 A3012 RMK A01 T03010101  RH  029%=      5-min Rain = 0
KWE2 112341Z 05005KT 30/10 A3012 RMK A01 T03000101  RH  029%=      5-min Rain = 0
KWE2 112342Z 05003KT 30/10 A3012 RMK A01 T03000100  RH  029%=      5-min Rain = 0
KWE2 112343Z 04004KT 30/10 A3012 RMK A01 T02990101  RH  029%=      5-min Rain = 0
KWE2 112344Z 05003KT 30/10 A3011 RMK A01 T03000102  RH  029%=      5-min Rain = 0
KWE2 112345Z 04003KT 30/10 A3011 RMK A01 T03010102  RH  029%=      5-min Rain = 0
KWE2 112346Z 12004KT 30/10 A3011 RMK A01 T03020104  RH  029%=      5-min Rain = 0
KWE2 112347Z 12003KT 30/10 A3012 RMK A01 T03020103  RH  029%=      5-min Rain = 0
KWE2 112348Z 11003KT 30/10 A3012 RMK A01 T03020103  RH  029%=      5-min Rain = 0
KWE2 112349Z 11005KT 30/10 A3012 RMK A01 T03010103  RH  029%=      5-min Rain = 0
KWE2 112350Z 12006KT 30/10 A3012 RMK A01 T03010104  RH  030%=      5-min Rain = 0
KWE2 112351Z 11007KT 30/11 A3011 RMK A01 T03000107  RH  030%=      5-min Rain = 0
KWE2 112352Z 10007KT 30/10 A3012 RMK A01 T03000101  RH  029%=      5-min Rain = 0
KWE2 112353Z 09008KT 30/10 A3012 RMK A01 T03000099  RH  029%=      5-min Rain = 0
KWE2 112354Z 09006KT 30/10 A3012 RMK A01 T02990099  RH  029%=      5-min Rain = 0
KWE2 112355Z 09005KT 30/10 A3012 RMK A01 T02980098  RH  029%=      5-min Rain = 0
KWE2 112356Z 10005KT 30/10 A3012 RMK A01 T02980100  RH  029%=      5-min Rain = 0
KWE2 112357Z 12005KT 30/10 A3012 RMK A01 T02990102  RH  030%=      5-min Rain = 0
KWE2 112358Z 12006KT 30/11 A3012 RMK A01 T02980106  RH  030%=      5-min Rain = 0
KWE2 112359Z 12005KT 30/11 A3012 RMK A01 T02980106  RH  031%=      5-min Rain = 0
KWE2 120000Z 12004KT 30/11 A3012 RMK A01 T02960106  RH  031%=      5-min Rain = 0
KWE2 120001Z 11005KT 30/11 A3012 RMK A01 T02950108  RH  031%=      5-min Rain = 0
KWE2 120002Z 11005KT 30/11 A3012 RMK A01 T02950106  RH  031%=      5-min Rain = 0
KWE2 120003Z 11004KT 30/11 A3012 RMK A01 T02950106  RH  031%=      5-min Rain = 0
KWE2 120004Z 11005KT 30/11 A3011 RMK A01 T02950105  RH  031%=      5-min Rain = 0
KWE2 120005Z 11005KT 30/11 A3011 RMK A01 T02950105  RH  031%=      5-min Rain = 0
KWE2 120006Z 12005KT 30/11 A3012 RMK A01 T02950107  RH  031%=      5-min Rain = 0
KWE2 120007Z 13006KT 30/11 A3011 RMK A01 T02950107  RH  031%=      5-min Rain = 0
KWE2 120008Z 14006KT 30/11 A3011 RMK A01 T02950112  RH  032%=      5-min Rain = 0
KWE2 120009Z 12006KT 29/11 A3011 RMK A01 T02930111  RH  032%=      5-min Rain = 0
KWE2 120010Z 12006KT 29/11 A3011 RMK A01 T02930108  RH  032%=      5-min Rain = 0
KWE2 120011Z 11005KT 29/11 A3011 RMK A01 T02920109  RH  032%=      5-min Rain = 0
KWE2 120012Z 11006KT 29/11 A3011 RMK A01 T02920108  RH  032%=      5-min Rain = 0
KWE2 120013Z 10006KT 29/11 A3011 RMK A01 T02920111  RH  032%=      5-min Rain = 0
KWE2 120014Z 10006KT 29/11 A3011 RMK A01 T02920107  RH  032%=      5-min Rain = 0
KWE2 120015Z 11005KT 29/11 A3011 RMK A01 T02920107  RH  032%=      5-min Rain = 0
KWE2 120016Z 11006KT 29/11 A3011 RMK A01 T02920109  RH  032%=      5-min Rain = 0
KWE2 120017Z 11005KT 29/11 A3011 RMK A01 T02910108  RH  032%=      5-min Rain = 0
KWE2 120018Z 12006KT 29/11 A3011 RMK A01 T02900112  RH  033%=      5-min Rain = 0
KWE2 120019Z 12005KT 29/11 A3011 RMK A01 T02890112  RH  033%=      5-min Rain = 0
KWE2 120020Z 11006KT 29/11 A3011 RMK A01 T02880111  RH  033%=      5-min Rain = 0
KWE2 120021Z 11006KT 29/11 A3011 RMK A01 T02880111  RH  033%=      5-min Rain = 0
KWE2 120022Z 12005KT 29/11 A3011 RMK A01 T02870111  RH  033%=      5-min Rain = 0
KWE2 120023Z 12005KT 29/11 A3011 RMK A01 T02860111  RH  034%=      5-min Rain = 0
KWE2 120024Z 12005KT 29/11 A3011 RMK A01 T02860112  RH  034%=      5-min Rain = 0
KWE2 120025Z 12005KT 29/12 A3011 RMK A01 T02850116  RH  035%=      5-min Rain = 0
KWE2 120026Z 13005KT 28/12 A3011 RMK A01 T02840115  RH  035%=      5-min Rain = 0
KWE2 120027Z 12004KT 28/12 A3011 RMK A01 T02840115  RH  035%=      5-min Rain = 0
KWE2 120028Z 12004KT 28/12 A3011 RMK A01 T02840116  RH  035%=      5-min Rain = 0
KWE2 120029Z 13005KT 28/12 A3011 RMK A01 T02830118  RH  036%=      5-min Rain = 0
KWE2 120030Z 13004KT 28/12 A3011 RMK A01 T02830116  RH  036%=      5-min Rain = 0
KWE2 120031Z 13004KT 28/12 A3011 RMK A01 T02830119  RH  036%=      5-min Rain = 0
KWE2 120032Z 12004KT 28/12 A3011 RMK A01 T02810117  RH  036%=      5-min Rain = 0
KWE2 120033Z 13004KT 28/12 A3011 RMK A01 T02810118  RH  037%=      5-min Rain = 0
KWE2 120034Z 12004KT 28/12 A3011 RMK A01 T02790121  RH  037%=      5-min Rain = 0
KWE2 120035Z 12004KT 28/12 A3011 RMK A01 T02780121  RH  038%=      5-min Rain = 0
KWE2 120036Z 12004KT 28/12 A3011 RMK A01 T02770121  RH  038%=      5-min Rain = 0
KWE2 120037Z 12004KT 28/12 A3011 RMK A01 T02750122  RH  039%=      5-min Rain = 0
KWE2 120038Z 11004KT 27/12 A3011 RMK A01 T02740123  RH  039%=      5-min Rain = 0
KWE2 120039Z 11004KT 27/12 A3011 RMK A01 T02720122  RH  039%=      5-min Rain = 0
KWE2 120040Z 11003KT 27/12 A3011 RMK A01 T02720122  RH  039%=      5-min Rain = 0
KWE2 120041Z 11004KT 27/12 A3011 RMK A01 T02710123  RH  040%=      5-min Rain = 0
KWE2 120042Z 11004KT 27/12 A3011 RMK A01 T02710121  RH  039%=      5-min Rain = 0
KWE2 120043Z 11004KT 27/12 A3011 RMK A01 T02700122  RH  040%=      5-min Rain = 0
KWE2 120044Z 12003KT 27/12 A3011 RMK A01 T02700124  RH  040%=      5-min Rain = 0
KWE2 120045Z 11003KT 27/12 A3011 RMK A01 T02690123  RH  040%=      5-min Rain = 0
KWE2 120046Z 12003KT 27/12 A3011 RMK A01 T02690123  RH  040%=      5-min Rain = 0
KWE2 120047Z 12003KT 27/12 A3011 RMK A01 T02680123  RH  041%=      5-min Rain = 0
KWE2 120048Z 11003KT 27/12 A3011 RMK A01 T02680124  RH  041%=      5-min Rain = 0
KWE2 120049Z 12003KT 27/12 A3011 RMK A01 T02670124  RH  041%=      5-min Rain = 0
KWE2 120050Z 11003KT 27/13 A3011 RMK A01 T02650126  RH  042%=      5-min Rain = 0
KWE2 120051Z 11003KT 26/13 A3011 RMK A01 T02640125  RH  042%=      5-min Rain = 0
KWE2 120052Z 11003KT 26/13 A3011 RMK A01 T02630126  RH  043%=      5-min Rain = 0
KWE2 120053Z 11004KT 26/13 A3011 RMK A01 T02620127  RH  043%=      5-min Rain = 0
KWE2 120054Z 11004KT 26/13 A3011 RMK A01 T02610126  RH  043%=      5-min Rain = 0
KWE2 120055Z 11004KT 26/13 A3011 RMK A01 T02600125  RH  043%=      5-min Rain = 0
KWE2 120056Z 11004KT 26/12 A3011 RMK A01 T02590124  RH  043%=      5-min Rain = 0
KWE2 120057Z 10003KT 26/13 A3011 RMK A01 T02580126  RH  044%=      5-min Rain = 0
KWE2 120058Z 10003KT 26/13 A3011 RMK A01 T02570126  RH  044%=      5-min Rain = 0
KWE2 120059Z 11003KT 26/13 A3011 RMK A01 T02560126  RH  045%=      5-min Rain = 0
KWE2 120100Z 12003KT 26/13 A3011 RMK A01 T02550127  RH  045%=      5-min Rain = 0
KWE2 120101Z 12003KT 25/13 A3011 RMK A01 T02540125  RH  045%=      5-min Rain = 0
KWE2 120102Z 12003KT 25/13 A3011 RMK A01 T02530127  RH  045%=      5-min Rain = 0
KWE2 120103Z 12004KT 25/13 A3011 RMK A01 T02520125  RH  045%=      5-min Rain = 0
KWE2 120104Z 12004KT 25/13 A3011 RMK A01 T02520127  RH  046%=      5-min Rain = 0
KWE2 120105Z 12004KT 25/13 A3011 RMK A01 T02510127  RH  046%=      5-min Rain = 0
KWE2 120106Z 12004KT 25/13 A3011 RMK A01 T02510128  RH  046%=      5-min Rain = 0
KWE2 120107Z 12004KT 25/13 A3011 RMK A01 T02500127  RH  046%=      5-min Rain = 0
KWE2 120108Z 12004KT 25/13 A3011 RMK A01 T02490127  RH  047%=      5-min Rain = 0
KWE2 120109Z 11004KT 25/13 A3011 RMK A01 T02480125  RH  046%=      5-min Rain = 0
KWE2 120110Z 11004KT 25/12 A3011 RMK A01 T02480122  RH  045%=      5-min Rain = 0
KWE2 120111Z 11003KT 25/12 A3011 RMK A01 T02490123  RH  045%=      5-min Rain = 0
KWE2 120112Z 11003KT 25/12 A3011 RMK A01 T02490122  RH  045%=      5-min Rain = 0
KWE2 120113Z 11003KT 25/12 A3011 RMK A01 T02500122  RH  045%=      5-min Rain = 0
KWE2 120114Z 11003KT 25/13 A3011 RMK A01 T02500125  RH  046%=      5-min Rain = 0
KWE2 120115Z 11003KT 25/13 A3011 RMK A01 T02490125  RH  046%=      5-min Rain = 0
KWE2 120116Z 11003KT 25/12 A3011 RMK A01 T02480122  RH  045%=      5-min Rain = 0
KWE2 120117Z 11003KT 25/12 A3011 RMK A01 T02480123  RH  046%=      5-min Rain = 0
KWE2 120118Z 11003KT 25/12 A3011 RMK A01 T02480124  RH  046%=      5-min Rain = 0
KWE2 120119Z 12003KT 25/12 A3011 RMK A01 T02480123  RH  046%=      5-min Rain = 0
KWE2 120120Z 11003KT 25/12 A3011 RMK A01 T02480121  RH  045%=      5-min Rain = 0
KWE2 120121Z 12003KT 25/12 A3011 RMK A01 T02480120  RH  045%=      5-min Rain = 0
KWE2 120122Z 11003KT 25/12 A3011 RMK A01 T02490121  RH  045%=      5-min Rain = 0
KWE2 120123Z 11003KT 25/12 A3011 RMK A01 T02490122  RH  045%=      5-min Rain = 0
KWE2 120124Z 11003KT 25/12 A3011 RMK A01 T02490123  RH  046%=      5-min Rain = 0
KWE2 120125Z 11003KT 25/13 A3011 RMK A01 T02480125  RH  046%=      5-min Rain = 0
KWE2 120126Z 12003KT 25/13 A3011 RMK A01 T02470126  RH  047%=      5-min Rain = 0
KWE2 120127Z 12003KT 25/13 A3011 RMK A01 T02460125  RH  047%=      5-min Rain = 0
KWE2 120128Z 12003KT 24/12 A3011 RMK A01 T02440123  RH  047%=      5-min Rain = 0
KWE2 120129Z 12003KT 24/13 A3011 RMK A01 T02430125  RH  047%=      5-min Rain = 0
KWE2 120130Z 12003KT 24/13 A3011 RMK A01 T02420125  RH  048%=      5-min Rain = 0
KWE2 120131Z 12003KT 24/12 A3011 RMK A01 T02410123  RH  047%=      5-min Rain = 0
KWE2 120132Z 12003KT 24/12 A3011 RMK A01 T02410122  RH  047%=      5-min Rain = 0
KWE2 120133Z 12003KT 24/12 A3011 RMK A01 T02410122  RH  047%=      5-min Rain = 0
KWE2 120134Z 12003KT 24/12 A3011 RMK A01 T02400120  RH  047%=      5-min Rain = 0
KWE2 120135Z 12003KT 24/12 A3011 RMK A01 T02410119  RH  046%=      5-min Rain = 0
KWE2 120136Z 11003KT 24/12 A3011 RMK A01 T02420119  RH  046%=      5-min Rain = 0
KWE2 120137Z 11003KT 24/12 A3011 RMK A01 T02430122  RH  047%=      5-min Rain = 0
KWE2 120138Z 11003KT 24/12 A3011 RMK A01 T02420123  RH  047%=      5-min Rain = 0
KWE2 120139Z 11003KT 24/12 A3011 RMK A01 T02420120  RH  046%=      5-min Rain = 0
KWE2 120140Z 11003KT 24/12 A3011 RMK A01 T02420118  RH  046%=      5-min Rain = 0
KWE2 120141Z 11003KT 24/12 A3011 RMK A01 T02430119  RH  046%=      5-min Rain = 0
KWE2 120142Z 11003KT 24/12 A3011 RMK A01 T02420121  RH  047%=      5-min Rain = 0
KWE2 120143Z 11003KT 24/12 A3011 RMK A01 T02410122  RH  047%=      5-min Rain = 0
KWE2 120144Z 11003KT 24/12 A3012 RMK A01 T02400124  RH  048%=      5-min Rain = 0
KWE2 120145Z 11003KT 24/13 A3012 RMK A01 T02380126  RH  049%=      5-min Rain = 0
KWE2 120146Z 11003KT 24/13 A3012 RMK A01 T02360126  RH  050%=      5-min Rain = 0
KWE2 120147Z 11003KT 24/13 A3012 RMK A01 T02350125  RH  050%=      5-min Rain = 0
KWE2 120148Z 11003KT 23/12 A3012 RMK A01 T02340122  RH  049%=      5-min Rain = 0
KWE2 120149Z 11003KT 23/12 A3012 RMK A01 T02340121  RH  049%=      5-min Rain = 0
KWE2 120150Z 11003KT 24/12 A3012 RMK A01 T02350124  RH  050%=      5-min Rain = 0
KWE2 120151Z 11003KT 24/12 A3012 RMK A01 T02350124  RH  050%=      5-min Rain = 0
KWE2 120152Z 11004KT 23/12 A3012 RMK A01 T02340124  RH  050%=      5-min Rain = 0
KWE2 120153Z 11004KT 23/12 A3012 RMK A01 T02340123  RH  050%=      5-min Rain = 0
KWE2 120154Z 11004KT 23/12 A3012 RMK A01 T02340124  RH  050%=      5-min Rain = 0
KWE2 120155Z 11003KT 24/12 A3012 RMK A01 T02350123  RH  050%=      5-min Rain = 0
KWE2 120156Z 11003KT 24/12 A3012 RMK A01 T02350120  RH  049%=      5-min Rain = 0
KWE2 120157Z 10003KT 24/12 A3012 RMK A01 T02370119  RH  048%=      5-min Rain = 0
KWE2 120158Z 10003KT 24/12 A3012 RMK A01 T02380118  RH  047%=      5-min Rain = 0
KWE2 120159Z 11003KT 24/12 A3012 RMK A01 T02400117  RH  046%=      5-min Rain = 0
KWE2 120200Z 11003KT 24/12 A3012 RMK A01 T02410116  RH  046%=      5-min Rain = 0
KWE2 120201Z 10003KT 24/12 A3012 RMK A01 T02410116  RH  045%=      5-min Rain = 0
KWE2 120202Z 10003KT 24/12 A3012 RMK A01 T02420116  RH  045%=      5-min Rain = 0
KWE2 120203Z 10003KT 24/12 A3012 RMK A01 T02420117  RH  045%=      5-min Rain = 0
KWE2 120204Z 10003KT 24/12 A3012 RMK A01 T02420115  RH  045%=      5-min Rain = 0
KWE2 120205Z 10003KT 24/12 A3012 RMK A01 T02420115  RH  045%=      5-min Rain = 0
KWE2 120206Z 11003KT 24/12 A3012 RMK A01 T02420115  RH  045%=      5-min Rain = 0
KWE2 120207Z 11004KT 24/12 A3012 RMK A01 T02420117  RH  046%=      5-min Rain = 0
KWE2 120208Z 11004KT 24/12 A3012 RMK A01 T02400117  RH  046%=      5-min Rain = 0
KWE2 120209Z 10004KT 24/12 A3012 RMK A01 T02400117  RH  046%=      5-min Rain = 0
KWE2 120210Z 10004KT 24/12 A3012 RMK A01 T02400117  RH  046%=      5-min Rain = 0
KWE2 120211Z 10004KT 24/12 A3012 RMK A01 T02390118  RH  046%=      5-min Rain = 0
KWE2 120212Z 10004KT 24/12 A3013 RMK A01 T02390118  RH  047%=      5-min Rain = 0
KWE2 120213Z 10004KT 24/12 A3013 RMK A01 T02380116  RH  046%=      5-min Rain = 0
KWE2 120214Z 10004KT 24/12 A3013 RMK A01 T02380115  RH  046%=      5-min Rain = 0
KWE2 120215Z 10004KT 24/12 A3013 RMK A01 T02380115  RH  046%=      5-min Rain = 0
KWE2 120216Z 10004KT 24/11 A3013 RMK A01 T02380114  RH  045%=      5-min Rain = 0
KWE2 120217Z 10003KT 24/11 A3013 RMK A01 T02390113  RH  045%=      5-min Rain = 0
KWE2 120218Z 09003KT 24/11 A3013 RMK A01 T02390113  RH  045%=      5-min Rain = 0
KWE2 120219Z 09004KT 24/11 A3013 RMK A01 T02390112  RH  045%=      5-min Rain = 0
KWE2 120220Z 09004KT 24/11 A3013 RMK A01 T02400112  RH  044%=      5-min Rain = 0
KWE2 120221Z 09004KT 24/11 A3013 RMK A01 T02410112  RH  044%=      5-min Rain = 0
KWE2 120222Z 09003KT 24/11 A3013 RMK A01 T02410112  RH  044%=      5-min Rain = 0
KWE2 120223Z 09003KT 24/11 A3013 RMK A01 T02410112  RH  044%=      5-min Rain = 0
KWE2 120224Z 09003KT 24/11 A3013 RMK A01 T02400112  RH  044%=      5-min Rain = 0
KWE2 120225Z 09003KT 24/11 A3013 RMK A01 T02400112  RH  045%=      5-min Rain = 0
KWE2 120226Z 09003KT 24/11 A3013 RMK A01 T02390113  RH  045%=      5-min Rain = 0
KWE2 120227Z 09003KT 24/12 A3013 RMK A01 T02390115  RH  046%=      5-min Rain = 0
KWE2 120228Z 09003KT 24/12 A3013 RMK A01 T02370115  RH  046%=      5-min Rain = 0
KWE2 120229Z 09003KT 24/12 A3013 RMK A01 T02360116  RH  047%=      5-min Rain = 0
KWE2 120230Z 09003KT 24/12 A3013 RMK A01 T02350118  RH  048%=      5-min Rain = 0
KWE2 120231Z 09003KT 23/12 A3013 RMK A01 T02340115  RH  047%=      5-min Rain = 0
KWE2 120232Z 09003KT 23/12 A3013 RMK A01 T02330115  RH  047%=      5-min Rain = 0
KWE2 120233Z 09003KT 23/12 A3013 RMK A01 T02330115  RH  047%=      5-min Rain = 0
KWE2 120234Z 09003KT 23/12 A3013 RMK A01 T02340115  RH  047%=      5-min Rain = 0
KWE2 120235Z 09003KT 24/12 A3013 RMK A01 T02350115  RH  047%=      5-min Rain = 0
KWE2 120236Z 09003KT 23/12 A3013 RMK A01 T02340120  RH  049%=      5-min Rain = 0
KWE2 120237Z 09003KT 23/12 A3013 RMK A01 T02310121  RH  050%=      5-min Rain = 0
KWE2 120238Z 09003KT 23/12 A3013 RMK A01 T02290120  RH  050%=      5-min Rain = 0
KWE2 120239Z 10003KT 23/12 A3013 RMK A01 T02270120  RH  051%=      5-min Rain = 0
KWE2 120240Z 10002KT 23/12 A3013 RMK A01 T02260119  RH  051%=      5-min Rain = 0
KWE2 120241Z 10002KT 23/12 A3013 RMK A01 T02250118  RH  051%=      5-min Rain = 0
KWE2 120242Z 09003KT 23/12 A3013 RMK A01 T02260118  RH  050%=      5-min Rain = 0
KWE2 120243Z 09003KT 23/12 A3013 RMK A01 T02260117  RH  050%=      5-min Rain = 0
KWE2 120244Z 09003KT 23/12 A3013 RMK A01 T02270119  RH  050%=      5-min Rain = 0
KWE2 120245Z 09002KT 23/12 A3013 RMK A01 T02260120  RH  051%=      5-min Rain = 0
KWE2 120246Z 10003KT 23/12 A3013 RMK A01 T02250119  RH  051%=      5-min Rain = 0
KWE2 120247Z 10003KT 22/12 A3013 RMK A01 T02240119  RH  051%=      5-min Rain = 0
KWE2 120248Z 09003KT 22/12 A3013 RMK A01 T02230119  RH  052%=      5-min Rain = 0
KWE2 120249Z 10003KT 22/12 A3013 RMK A01 T02230118  RH  051%=      5-min Rain = 0
KWE2 120250Z 10003KT 22/12 A3013 RMK A01 T02220118  RH  051%=      5-min Rain = 0
KWE2 120251Z 10003KT 22/12 A3013 RMK A01 T02220121  RH  053%=      5-min Rain = 0
KWE2 120252Z 11003KT 22/12 A3013 RMK A01 T02200121  RH  053%=      5-min Rain = 0
KWE2 120253Z 11004KT 22/12 A3013 RMK A01 T02180121  RH  054%=      5-min Rain = 0
KWE2 120254Z 11003KT 22/12 A3013 RMK A01 T02170120  RH  054%=      5-min Rain = 0
KWE2 120255Z 11003KT 22/12 A3013 RMK A01 T02160119  RH  054%=      5-min Rain = 0
KWE2 120256Z 11003KT 22/12 A3013 RMK A01 T02150119  RH  054%=      5-min Rain = 0
KWE2 120257Z 11003KT 22/12 A3013 RMK A01 T02150117  RH  054%=      5-min Rain = 0
KWE2 120258Z 11003KT 22/12 A3013 RMK A01 T02150118  RH  054%=      5-min Rain = 0
KWE2 120259Z 11003KT 22/12 A3013 RMK A01 T02150120  RH  054%=      5-min Rain = 0
KWE2 120300Z 11003KT 22/12 A3013 RMK A01 T02170118  RH  053%=      5-min Rain = 0
KWE2 120301Z 10002KT 22/12 A3013 RMK A01 T02180118  RH  053%=      5-min Rain = 0
KWE2 120302Z 10002KT 22/12 A3013 RMK A01 T02190117  RH  052%=      5-min Rain = 0
KWE2 120303Z 09002KT 22/12 A3013 RMK A01 T02200118  RH  052%=      5-min Rain = 0
KWE2 120304Z 10002KT 22/12 A3013 RMK A01 T02210117  RH  052%=      5-min Rain = 0
KWE2 120305Z 09002KT 22/12 A3013 RMK A01 T02210117  RH  051%=      5-min Rain = 0
KWE2 120306Z 09002KT 22/11 A3013 RMK A01 T02210109  RH  049%=      5-min Rain = 0
KWE2 120307Z 09002KT 22/11 A3013 RMK A01 T02200105  RH  048%=      5-min Rain = 0
KWE2 120308Z 09002KT 22/11 A3013 RMK A01 T02190106  RH  049%=      5-min Rain = 0
KWE2 120309Z 09002KT 22/11 A3013 RMK A01 T02180107  RH  049%=      5-min Rain = 0
KWE2 120310Z 09002KT 22/11 A3013 RMK A01 T02170107  RH  050%=      5-min Rain = 0
KWE2 120311Z 09001KT 22/11 A3013 RMK A01 T02150106  RH  050%=      5-min Rain = 0
KWE2 120312Z 09001KT 21/11 A3013 RMK A01 T02140105  RH  050%=      5-min Rain = 0
KWE2 120313Z 09001KT 21/10 A3013 RMK A01 T02130104  RH  050%=      5-min Rain = 0
KWE2 120314Z 09001KT 21/10 A3013 RMK A01 T02130102  RH  049%=      5-min Rain = 0
KWE2 120315Z 09001KT 21/10 A3013 RMK A01 T02120101  RH  049%=      5-min Rain = 0
KWE2 120316Z 09001KT 21/10 A3013 RMK A01 T02130102  RH  049%=      5-min Rain = 0
KWE2 120317Z 09001KT 21/11 A3013 RMK A01 T02120106  RH  050%=      5-min Rain = 0
KWE2 120318Z 09001KT 21/11 A3013 RMK A01 T02120107  RH  051%=      5-min Rain = 0
KWE2 120319Z 09001KT 21/11 A3013 RMK A01 T02110108  RH  052%=      5-min Rain = 0
KWE2 120320Z 09001KT 21/11 A3013 RMK A01 T02100108  RH  052%=      5-min Rain = 0
KWE2 120321Z 09001KT 21/11 A3013 RMK A01 T02100109  RH  052%=      5-min Rain = 0
KWE2 120322Z 09001KT 21/11 A3014 RMK A01 T02090109  RH  053%=      5-min Rain = 0
KWE2 120323Z 09001KT 21/11 A3014 RMK A01 T02080111  RH  054%=      5-min Rain = 0
KWE2 120324Z 09001KT 21/11 A3014 RMK A01 T02070110  RH  054%=      5-min Rain = 0
KWE2 120325Z 09001KT 21/11 A3014 RMK A01 T02060110  RH  054%=      5-min Rain = 0
KWE2 120326Z 09001KT 21/11 A3014 RMK A01 T02050110  RH  054%=      5-min Rain = 0
KWE2 120327Z 09001KT 20/11 A3014 RMK A01 T02040106  RH  053%=      5-min Rain = 0
KWE2 120328Z 09001KT 20/10 A3014 RMK A01 T02030104  RH  053%=      5-min Rain = 0
KWE2 120329Z 09001KT 20/10 A3014 RMK A01 T02020103  RH  053%=      5-min Rain = 0
KWE2 120330Z 09001KT 20/10 A3014 RMK A01 T02010103  RH  053%=      5-min Rain = 0
KWE2 120331Z 09000KT 20/10 A3014 RMK A01 T02010102  RH  053%=      5-min Rain = 0
KWE2 120332Z 09000KT 20/10 A3014 RMK A01 T02000101  RH  053%=      5-min Rain = 0
KWE2 120333Z 09000KT 20/10 A3014 RMK A01 T01990100  RH  053%=      5-min Rain = 0
KWE2 120334Z 09000KT 20/10 A3014 RMK A01 T01990097  RH  052%=      5-min Rain = 0
KWE2 120335Z 09000KT 20/10 A3014 RMK A01 T01980097  RH  052%=      5-min Rain = 0
KWE2 120336Z 09000KT 20/10 A3014 RMK A01 T01990100  RH  053%=      5-min Rain = 0
KWE2 120337Z 09000KT 20/10 A3014 RMK A01 T02000103  RH  053%=      5-min Rain = 0
KWE2 120338Z 00000KT 20/10 A3014 RMK A01 T02010101  RH  052%=      5-min Rain = 0
KWE2 120339Z 00000KT 20/10 A3014 RMK A01 T02020098  RH  051%=      5-min Rain = 0
KWE2 120340Z 00000KT 20/10 A3014 RMK A01 T02020099  RH  051%=      5-min Rain = 0
KWE2 120341Z 00000KT 20/10 A3014 RMK A01 T02020101  RH  052%=      5-min Rain = 0
KWE2 120342Z 00000KT 20/10 A3014 RMK A01 T02010099  RH  052%=      5-min Rain = 0
KWE2 120343Z 00000KT 20/10 A3014 RMK A01 T02010100  RH  052%=      5-min Rain = 0
KWE2 120344Z 00000KT 20/10 A3014 RMK A01 T02000101  RH  053%=      5-min Rain = 0
KWE2 120345Z 00000KT 20/10 A3014 RMK A01 T02000102  RH  053%=      5-min Rain = 0
KWE2 120346Z 00000KT 20/10 A3014 RMK A01 T01990102  RH  053%=      5-min Rain = 0
KWE2 120347Z 00000KT 20/10 A3014 RMK A01 T01980102  RH  054%=      5-min Rain = 0
KWE2 120348Z 00000KT 20/10 A3014 RMK A01 T01980102  RH  054%=      5-min Rain = 0
KWE2 120349Z 00000KT 20/10 A3014 RMK A01 T01980101  RH  053%=      5-min Rain = 0
KWE2 120350Z 09000KT 20/10 A3014 RMK A01 T01980099  RH  053%=      5-min Rain = 0
KWE2 120351Z 09000KT 20/10 A3014 RMK A01 T01970098  RH  052%=      5-min Rain = 0
KWE2 120352Z 09000KT 20/10 A3014 RMK A01 T01980097  RH  052%=      5-min Rain = 0
KWE2 120353Z 09000KT 20/10 A3014 RMK A01 T01980097  RH  052%=      5-min Rain = 0
KWE2 120354Z 00000KT 20/10 A3014 RMK A01 T01980096  RH  052%=      5-min Rain = 0
KWE2 120355Z 00000KT 20/10 A3014 RMK A01 T01970096  RH  052%=      5-min Rain = 0
KWE2 120356Z 09000KT 20/10 A3014 RMK A01 T01970098  RH  053%=      5-min Rain = 0
KWE2 120357Z 09000KT 20/10 A3014 RMK A01 T01960100  RH  054%=      5-min Rain = 0
KWE2 120358Z 00000KT 20/10 A3014 RMK A01 T01950100  RH  054%=      5-min Rain = 0
KWE2 120359Z 00000KT 20/10 A3014 RMK A01 T01950096  RH  053%=      5-min Rain = 0
KWE2 120400Z 09000KT 19/09 A3014 RMK A01 T01940093  RH  052%=      5-min Rain = 0
KWE2 120401Z 09000KT 19/09 A3014 RMK A01 T01930091  RH  051%=      5-min Rain = 0
KWE2 120402Z 09000KT 19/09 A3014 RMK A01 T01930091  RH  051%=      5-min Rain = 0
KWE2 120403Z 09000KT 19/09 A3014 RMK A01 T01920093  RH  052%=      5-min Rain = 0
KWE2 120404Z 09000KT 19/10 A3014 RMK A01 T01920095  RH  053%=      5-min Rain = 0
KWE2 120405Z 09001KT 19/10 A3014 RMK A01 T01920099  RH  055%=      5-min Rain = 0
KWE2 120406Z 09001KT 19/10 A3014 RMK A01 T01920100  RH  055%=      5-min Rain = 0
KWE2 120407Z 09001KT 19/10 A3014 RMK A01 T01920099  RH  055%=      5-min Rain = 0
KWE2 120408Z 09001KT 19/10 A3014 RMK A01 T01920100  RH  055%=      5-min Rain = 0
KWE2 120409Z 09001KT 19/10 A3014 RMK A01 T01910099  RH  055%=      5-min Rain = 0
KWE2 120410Z 09001KT 19/10 A3014 RMK A01 T01910101  RH  056%=      5-min Rain = 0
KWE2 120411Z 09001KT 19/10 A3014 RMK A01 T01910097  RH  054%=      5-min Rain = 0
KWE2 120412Z 09001KT 19/10 A3014 RMK A01 T01910095  RH  053%=      5-min Rain = 0
KWE2 120413Z 09000KT 19/09 A3014 RMK A01 T01910093  RH  053%=      5-min Rain = 0
KWE2 120414Z 00000KT 19/09 A3014 RMK A01 T01910093  RH  053%=      5-min Rain = 0
KWE2 120415Z 00000KT 19/10 A3014 RMK A01 T01900095  RH  054%=      5-min Rain = 0
KWE2 120416Z 00000KT 19/10 A3014 RMK A01 T01890095  RH  054%=      5-min Rain = 0
KWE2 120417Z 00000KT 19/10 A3014 RMK A01 T01890096  RH  055%=      5-min Rain = 0
KWE2 120418Z 00000KT 19/10 A3014 RMK A01 T01880096  RH  055%=      5-min Rain = 0
KWE2 120419Z 00000KT 19/10 A3014 RMK A01 T01870097  RH  056%=      5-min Rain = 0
KWE2 120420Z 09000KT 19/10 A3014 RMK A01 T01850097  RH  057%=      5-min Rain = 0
KWE2 120421Z 09000KT 18/10 A3014 RMK A01 T01840098  RH  057%=      5-min Rain = 0
KWE2 120422Z 09001KT 18/10 A3014 RMK A01 T01820097  RH  057%=      5-min Rain = 0
KWE2 120423Z 09001KT 18/10 A3014 RMK A01 T01820095  RH  057%=      5-min Rain = 0
KWE2 120424Z 09001KT 18/10 A3014 RMK A01 T01820099  RH  058%=      5-min Rain = 0
KWE2 120425Z 33001KT 18/10 A3014 RMK A01 T01810101  RH  059%=      5-min Rain = 0
KWE2 120426Z 31002KT 18/10 A3014 RMK A01 T01810100  RH  059%=      5-min Rain = 0
KWE2 120427Z 31002KT 18/10 A3014 RMK A01 T01800101  RH  060%=      5-min Rain = 0
KWE2 120428Z 31002KT 18/10 A3014 RMK A01 T01800102  RH  060%=      5-min Rain = 0
KWE2 120429Z 31002KT 18/10 A3014 RMK A01 T01790102  RH  060%=      5-min Rain = 0
KWE2 120430Z 32001KT 18/10 A3014 RMK A01 T01790101  RH  060%=      5-min Rain = 0
KWE2 120431Z 32000KT 18/10 A3014 RMK A01 T01790103  RH  061%=      5-min Rain = 0
KWE2 120432Z 00000KT 18/11 A3014 RMK A01 T01790110  RH  064%=      5-min Rain = 0
KWE2 120433Z 00000KT 18/12 A3014 RMK A01 T01790115  RH  066%=      5-min Rain = 0
KWE2 120434Z 00000KT 18/12 A3014 RMK A01 T01780115  RH  066%=      5-min Rain = 0
KWE2 120435Z 00000KT 18/11 A3014 RMK A01 T01780114  RH  066%=      5-min Rain = 0
KWE2 120436Z 00000KT 18/11 A3014 RMK A01 T01780114  RH  066%=      5-min Rain = 0
KWE2 120437Z 00000KT 18/11 A3014 RMK A01 T01790113  RH  065%=      5-min Rain = 0
KWE2 120438Z 00000KT 18/12 A3014 RMK A01 T01790119  RH  068%=      5-min Rain = 0
KWE2 120439Z 00000KT 18/12 A3014 RMK A01 T01790121  RH  069%=      5-min Rain = 0
KWE2 120440Z 00000KT 18/12 A3014 RMK A01 T01790121  RH  069%=      5-min Rain = 0
KWE2 120441Z 32000KT 18/12 A3014 RMK A01 T01780122  RH  070%=      5-min Rain = 0
KWE2 120442Z 32000KT 18/12 A3014 RMK A01 T01770119  RH  069%=      5-min Rain = 0
KWE2 120443Z 32000KT 18/12 A3014 RMK A01 T01770117  RH  068%=      5-min Rain = 0
KWE2 120444Z 32000KT 18/12 A3014 RMK A01 T01760116  RH  068%=      5-min Rain = 0
KWE2 120445Z 00000KT 18/11 A3014 RMK A01 T01760105  RH  063%=      5-min Rain = 0
KWE2 120446Z 00000KT 18/10 A3014 RMK A01 T01760098  RH  060%=      5-min Rain = 0
KWE2 120447Z 00000KT 18/10 A3014 RMK A01 T01760097  RH  060%=      5-min Rain = 0
KWE2 120448Z 32000KT 18/10 A3014 RMK A01 T01760100  RH  061%=      5-min Rain = 0
KWE2 120449Z 32000KT 18/10 A3014 RMK A01 T01760096  RH  059%=      5-min Rain = 0
KWE2 120450Z 32000KT 18/10 A3014 RMK A01 T01770099  RH  060%=      5-min Rain = 0
KWE2 120451Z 32000KT 18/10 A3014 RMK A01 T01780103  RH  061%=      5-min Rain = 0
KWE2 120452Z 00000KT 18/10 A3014 RMK A01 T01790104  RH  061%=      5-min Rain = 0
KWE2 120453Z 32000KT 18/10 A3014 RMK A01 T01800104  RH  061%=      5-min Rain = 0
KWE2 120454Z 32001KT 18/10 A3014 RMK A01 T01810100  RH  059%=      5-min Rain = 0
KWE2 120455Z 32001KT 18/10 A3014 RMK A01 T01810098  RH  058%=      5-min Rain = 0
KWE2 120456Z 32001KT 18/10 A3014 RMK A01 T01810098  RH  058%=      5-min Rain = 0
KWE2 120457Z 32001KT 18/10 A3014 RMK A01 T01810102  RH  060%=      5-min Rain = 0
KWE2 120458Z 32001KT 18/11 A3014 RMK A01 T01820106  RH  061%=      5-min Rain = 0
KWE2 120459Z 32001KT 18/11 A3014 RMK A01 T01830106  RH  061%=      5-min Rain = 0

Page generated in 0.2207 seconds.